     2              OBSERVATION DATA    G (GPS)             RINEX VERSION / TYPE
TRRINEXO V2.3.1 LH UCLA / SCEC 25-FEB-94 17:39              PGM / RUN BY / DATE
                                                            COMMENT
PROJECT NAME: NORTHRIDGE EARTHQUAKE                         COMMENT
ARCHIVED BY: SOUTHERN CALIFORNIA EARTHQUAKE CENTER (SCEC)   COMMENT
ANTENNA DELTA H: DIRECT HEIGHT TO PRE-AMP BASE (DHPAB)      COMMENT
ANTENNA SPECIFICATION: L1 = DHPAB + .0692                   COMMENT
NOTE:                                                       COMMENT
PROBLEM: SEE LOG SHEET - AFTER POWER FAILURE                COMMENT
FOR FURTHER INFORMATION CONTACT: DAVE JACKSON               COMMENT
UCLA / GEOLOGY BLDG., 595 CIRCLE DR E. RM 3806              COMMENT
BIT 2 OF LLI (+4) FLAGS DATA COLLECTED UNDER "AS" CONDITION COMMENT
MEAS ANT HT=0.9795 m (SLANT HT OUT EDGE, TOP GROUND PLANE)  COMMENT
CHATSWORTH RE 62 1933 REFERENCE MARK NO 1                   MARKER NAME
D. POTTER UCLA                                              OBSERVER / AGENCY
930 TRIMBLE 4000 SST 4.81                                   REC # / TYPE / VERS
0 TRIMBLE 4000 SST                                          ANT # / TYPE
 -2529753.0000 -4632035.0000  3570415.0000                  APPROX POSITION XYZ
        0.8864        0.0000        0.0000                  ANTENNA: DELTA H/E/N
     1     2                                                WAVELENGTH FACT L1/2
     3    C1    L1    L2                                    # / TYPES OF OBSERV
    30                                                      INTERVAL
  1994     1    22    21     9    0.000000                  TIME OF FIRST OBS
                                                            END OF HEADER
 94  1 22 21  9  0.0000000  0  6 29  4 14 18 19 22
  20886773.109          -0.22417
  24987140.258          -0.44113
  21323897.250          -0.96917
  21741741.266          -0.48817
  22895615.578          -0.27716
  21994446.234          -0.84417
 94  1 22 21  9 30.0000000  0  6 29  4 14 18 19 22
  20876142.156      -55871.385 7        -0.28419
  24982440.945      -24700.002 3        -0.11813
  21328766.586       25567.832 7        -0.37618
  21721385.242     -106969.740 7        -0.37217
  22874171.672     -112677.665 6        -0.09916
  21995702.930        6616.707 7        -0.41218
 94  1 22 21 10  0.0000000  0  6 29  4 14 18 19 22
  20865566.875     -111446.028 7    -43305.194 9
  24977825.875      -48961.326 3    -18905.045 1
  21333725.781       51630.956 7     20308.521 8
  21701067.023     -213743.160 7    -83200.413 7
  22852781.047     -225104.827 6    -87605.623 6
  21997062.570       13757.502 7      5563.834 8
 94  1 22 21 10 30.0000000  0  6 29  4 14 18 19 22
  20855045.586     -166739.212 7    -86390.786 9
  24973284.156      -72782.468 3    -37466.955 3
  21338776.063       78178.570 7     40994.941 8
  21680784.953     -320326.860 7   -166252.619 7
  22831435.813     -337289.870 6   -175022.489 6
  21998521.109       21415.465 7     11531.073 8
 94  1 22 21 11  0.0000000  0  6 29  4 14 18 19 22
  20844580.047     -221731.726 7   -129242.071 9
  24968848.578      -96143.495 3    -55670.355 2
  21343922.945      105226.035 7     62070.873 8
  21660543.281     -426702.800 7   -249142.928 7
  22810131.688     -449212.758 6   -262235.054 6
  22000077.555       29605.938 7     17913.277 8
 94  1 22 21 11 30.0000000  0  6 29  4 14 18 19 22
  20834181.000     -276384.252 7   -171828.465 9
  24964497.930     -119000.775 3    -73481.254 2
  21349174.281      132810.787 7     83565.443 8
  21640346.711     -532826.630 7   -331836.815 7
  22788896.258     -560814.351 6   -349197.308 6
  22001748.953       38389.740 7     24757.773 8
 94  1 22 21 12  0.0000000  0  6 29  4 14 18 19 22
  20823841.125     -330717.262 7   -214165.861 9
  24960236.523     -141373.824 3    -90914.799 2
  21354521.383      160910.188 7    105461.048 8
  21620199.047     -638713.642 7   -414346.149 7
  22767714.531     -672109.830 6   -435920.998 6
  22003532.234       47754.679 7     32055.128 8
 94  1 22 21 12 30.0000000  0  6 29  4 14 18 19 22
  20813554.398     -384775.504 7   -256289.164 9
  24956060.891     -163331.732 3   -108024.863 2
  21359954.922      189468.135 7    127713.963 8
  21600081.500     -744428.566 7   -496721.387 7
  22746584.102     -783166.355 6   -522458.491 6
  22005413.539       57643.220 7     39760.479 8
 94  1 22 21 13  0.0000000  0  6 29  4 14 18 19 22
  20803315.828     -438577.703 7   -298212.949 9
  24951951.938     -184901.430 3   -124832.382 1
  21365473.352      218473.221 7    150315.296 8
  21579994.531     -849996.893 7   -578982.395 7
  22725490.852     -894009.711 6   -608829.876 6
  22007389.789       68021.996 7     47847.828 8
 94  1 22 21 13 30.0000000  0  6 29  4 14 18 19 22
  20793127.383     -492123.485 7   -339936.910 9
  24947929.281     -206069.099 3   -141326.668 2
  21371075.391      247911.447 7    173254.156 8
  21559934.281     -955404.566 7   -661118.198 7
  22704439.539    -1004634.600 6   -695031.020 6
  22009459.578       78896.518 7     56321.501 8
 94  1 22 21 14  0.0000000  0  6 29  4 14 18 19 22
  20782988.523     -545400.120 7   -381451.166 9
  24943978.234     -226825.934 3   -157500.827 2
  21376762.531      277795.901 7    196540.705 8
  21539908.773    -1060631.243 7   -743112.991 8
  22683431.555    -1115038.343 6   -781059.868 6
  22011622.344       90259.661 7     65175.892 8
 94  1 22 21 14 30.0000000  0  6 29  4 14 18 19 22
  20772902.172     -598407.755 7   -422755.806 9
  24940114.906     -247165.085 3   -173349.517 1
  21382533.203      308125.839 7    220174.392 8
  21519919.570    -1165681.899 7   -824970.616 8
  22662464.406    -1225210.232 6   -866908.034 6
  22013875.773      102105.853 7     74406.680 8
 94  1 22 21 15  0.0000000  0  6 29  4 14 18 19 22
  20762864.211     -651149.744 7   -463853.448 9
  24936321.023     -267084.882 2   -188871.396 1
  21388385.648      338880.952 6    244139.381 8
  21499964.117    -1270548.050 7   -906684.475 8
  22641545.672    -1335144.297 6   -952570.882 6
  22016220.078      114426.859 7     84007.455 8
 94  1 22 21 15 30.0000000  0  6 29  4 14 18 19 22
  20752879.703     -703613.636 7   -504734.393 9
  24932601.484     -286578.251 2   -204061.034 2
  21394320.336      370062.827 7    268436.915 8
  21480045.555    -1375220.352 7   -988247.270 8
  22620675.555    -1444822.208 6  -1038034.148 6
  22018657.875      127238.738 7     93990.730 8
 94  1 22 21 16  0.0000000  0  6 29  4 14 18 19 22
  20742948.477     -755806.306 7   -545403.996 9
  24928969.289     -305674.091 3   -218940.920 2
  21400334.375      401669.639 6    293065.562 8
  21460160.484    -1479718.282 7  -1069674.195 8
  22599851.758    -1554252.952 6  -1123304.793 6
  22021188.258      140539.318 7    104354.811 8
 94  1 22 21 16 30.0000000  0  5 29 14 18 19 22
  20733069.906     -807722.891 7   -585858.471 9
  21406430.750      433690.730 6    318017.030 8
  21440305.898    -1584052.409 7  -1150973.486 8
  22579070.633    -1663441.392 6  -1208386.640 6
  22023813.563      154341.848 7    115110.013 8
 94  1 22 21 17  0.0000000  0  5 29 14 18 19 22
  20723244.047     -859356.431 7   -626092.386 9
  21412604.070      466143.309 6    343304.725 8
  21420484.539    -1688222.546 7  -1232144.991 8
  22558335.484    -1772401.208 6  -1293290.338 6
  22026538.586      168651.257 7    126260.192 8
 94  1 22 21 17 30.0000000  0  5 29 14 18 19 22
  20713473.383     -910709.196 7   -666107.513 9
  21418864.211      499048.514 6    368945.104 8
  21400691.305    -1792237.900 7  -1313195.878 8
  22537643.953    -1881139.658 6  -1378021.545 6
  22029359.664      183469.015 7    137806.485 8
 94  1 22 21 18  0.0000000  0  5 29 14 18 19 22
  20703754.219     -961774.813 7   -705898.893 9
  21425214.336      532409.229 6    394940.435 8
  21380931.609    -1896074.282 7  -1394107.317 8
  22516994.305    -1989656.454 6  -1462580.027 6
  22032273.516      198790.008 7    149744.903 8
 94  1 22 21 18 30.0000000  0  5 29 14 18 19 22
  20694094.594    -1012541.948 7   -745457.691 9
  21431651.711      566231.038 6    421295.057 8
  21361209.055    -1999717.851 7  -1474868.509 8
  22496387.352    -2097946.910 6  -1546962.150 6
  22035282.484      214606.802 6    162069.658 8
 94  1 22 21 19  0.0000000  0  6 29 27 14 18 19 22
  20684488.203    -1063019.735 7   -784791.024 9
  25049311.242          -0.53712
  21438171.570      600504.780 6    448001.836 8
  21341522.531    -2103165.322 7  -1555476.908 8
  22475823.547    -2206011.522 6  -1631168.287 6
  22038385.734      230896.855 7    174763.185 8
 94  1 22 21 19 30.0000000  0  6 29 27 14 18 19 22
  20674938.086    -1113207.735 7   -823898.547 9
  25024630.922     -129706.306 2
  21444773.672      635192.677 6    475031.337 8
  21321879.203    -2206391.837 7  -1635913.125 8
  22455304.992    -2313832.749 6  -1715184.779 6
  22041575.117      247663.136 7    187827.794 8
 94  1 22 21 20  0.0000000  0  7 29 27 14 18 19 22 28
  20665445.133    -1163095.045 7   -862771.774 9
  24999968.273     -259289.942 2        -0.40112
  21451449.961      670285.577 6    502376.424 8
  21302283.148    -2309378.003 7  -1716162.065 8
  22434836.258    -2421386.767 6  -1798993.044 6
  22044857.844      264923.583 6    201277.471 8
  24894310.258     -113803.989 3
 94  1 22 21 20 30.0000000  0  7 29 27 14 18 19 22 28
  20656006.789    -1212693.385 7   -901419.829 9
  24975328.422     -388762.623 2   -100888.062 2
  21458206.227      705788.821 6    530041.253 8
  21282727.180    -2412141.816 7  -1796237.741 8
  22414417.953    -2528688.519 6  -1882604.756 6
  22048237.000      282670.520 6    215106.242 8
  24872662.289     -227510.368 3        -0.35913
 94  1 22 21 21  0.0000000  0  7 29 27 14 18 19 22 28
  20646623.133    -1262004.764 7   -939844.275 9
  24950719.031     -518113.022 2   -201680.384 1
  21465041.750      741698.295 6    558022.626 8
  21263215.766    -2514675.953 7  -1876134.451 8
  22394048.672    -2635733.449 6  -1966016.327 6
  22051702.992      300896.773 6    229308.486 8
  24851052.828     -341095.504 3    -88508.177 2
 94  1 22 21 21 30.0000000  0  7 29 27 14 18 19 22 28
  20637294.773    -1311026.324 7   -978042.890 9
  24926126.086     -647346.886 2   -302381.993 2
  21471951.953      778019.380 6    586324.743 8
  21243745.906    -2616981.213 7  -1955852.818 8
  22373729.852    -2742523.666 6  -2049229.435 6
  22055266.375      319608.492 6    243889.019 8
  24829467.227     -454520.763 3   -176891.410 4
 94  1 22 21 22  0.0000000  0  7 29 27 14 18 19 22 28
  20628019.594    -1359766.824 7  -1016022.503 9
  24901556.500     -776475.133 3   -403001.270 1
  21478945.938      814764.039 6    614956.906 8
  21224317.633    -2719081.496 7  -2035411.457 8
  22353451.641    -2849088.455 6  -2132266.886 6
  22058912.602      338777.053 6    258825.530 7
  24807924.836     -567785.681 3   -265149.702 3
 94  1 22 21 22 30.0000000  0  7 29 27 14 18 19 22 28
  20618804.445    -1408197.345 7  -1053760.568 9
  24877001.438     -905485.249 3   -503528.530 1
  21486022.906      851953.123 6    643935.391 8
  21204933.453    -2820944.269 7  -2114785.037 8
  22333218.898    -2955411.305 6  -2215115.809 6
  22062649.633      358414.464 6    274127.392 7
  24786390.859     -680876.978 3   -353272.693 3
 94  1 22 21 23  0.0000000  0  7 29 27 14 18 19 22 28
  20609648.016    -1456311.876 7  -1091252.412 9
  24852473.102    -1034378.396 3   -603964.645 2
  21493176.789      889561.460 6    673240.567 8
  21185594.313    -2922573.889 7  -2193976.930 8
  22313034.438    -3061489.231 6  -2297773.872 6
  22066475.656      378515.047 6    289790.171 7
  24764900.219     -793796.911 3   -441262.126 2
 94  1 22 21 23 30.0000000  0  7 29 27 14 18 19 22 28
  20600553.477    -1504098.458 7  -1128488.708 9
  24827970.219    -1163145.798 3   -704302.785 2
  21500416.586      927591.269 6    702874.144 7
  21166299.633    -3023966.150 7  -2272983.867 8
  22292894.117    -3167325.362 6  -2380243.544 6
  22070389.008      399086.516 6    305819.869 8
  24743446.320     -906551.823 3   -529122.965 2
 94  1 22 21 24  0.0000000  0  7 29 27 14 18 19 22 28
  20591527.000    -1551542.035 7  -1165457.726 9
  24803499.055    -1291760.618 3   -804522.050 2
  21507733.688      966047.780 6    732840.235 7
  21147054.633    -3125099.081 7  -2351788.729 8
  22272802.906    -3272903.670 6  -2462512.304 6
  22074395.305      420141.606 6    322226.408 7
  24722027.000    -1019152.688 3   -616863.750 4
 94  1 22 21 24 30.0000000  0  7 29 27 14 18 19 22 28
  20582562.711    -1598645.469 7  -1202161.705 9
  24779051.422    -1420232.199 3   -904629.641 2
  21515129.984     1004917.295 6    763128.145 8
  21127858.227    -3225979.556 7  -2430396.868 8
  22252758.945    -3378220.281 6  -2544577.138 6
  22078495.789      441684.212 6    339012.835 7
  24700619.430    -1131603.508 3   -704487.623 3
 94  1 22 21 25  0.0000000  0  7 29 27 14 18 19 22 28
  20573661.461    -1645421.204 7  -1238610.326 9
  24754629.922    -1548571.015 3  -1004633.830 2
  21522602.531     1044189.152 6    793729.568 7
  21108703.070    -3326639.622 7  -2508833.264 8
  22232763.867    -3483284.819 6  -2626445.546 6
  22082685.453      463699.608 6    356167.670 7
  24679241.539    -1243917.614 3   -792004.978 3
 94  1 22 21 25 30.0000000  0  7 29 27 14 18 19 22 28
  20564820.930    -1691881.481 7  -1274813.134 9
  24730226.578    -1676785.174 3  -1104540.893 1
  21530155.086     1083872.274 6    824651.459 7
  21089589.875    -3427076.399 7  -2587095.667 8
  22212823.102    -3588088.950 6  -2708111.049 6
  22086964.797      486194.393 6    373696.058 7
  24657905.266    -1356098.177 3   -879418.264 2
 94  1 22 21 25 59.9990000  0  7 29 27 14 18 19 22 28
  20556036.237    -1738043.384 7  -1310783.445 9
  24705854.925    -1804886.708 3  -1204360.217 1
  21537780.722     1123948.044 6    855879.305 7
  21070514.159    -3527319.819 7  -2665207.399 8
  22192928.565    -3692630.757 6  -2789572.138 6
  22091333.386      509151.833 6    391584.949 7
  24636572.331    -1468143.657 3   -966726.277 2
 94  1 22 21 26 29.9990000  0  7 29 27 14 18 19 22 28
  20547307.901    -1783911.185 7  -1346524.584 9
  24681491.073    -1932899.047 3  -1304110.012 2
  21545482.276     1164418.039 6    887414.337 7
  21051472.808    -3627389.779 7  -2743183.969 8
  22173085.315    -3796923.055 6  -2870838.811 6
  22095787.315      532560.043 6    409825.090 7
  24615283.487    -1580048.891 3  -1053925.021 3
 94  1 22 21 26 59.9990000  0  7 29 27 14 18 19 22 28
  20538636.214    -1829473.388 7  -1382027.592 9
  24657151.206    -2060803.543 3  -1403775.819 2
  21553258.487     1205279.921 6    919254.744 7
  21032465.940    -3727275.680 7  -2821017.112 8
  22153285.034    -3900960.273 6  -2951906.705 6
  22100326.628      556416.865 6    428414.800 7
  24594016.386    -1691802.842 3  -1141005.886 4
 94  1 22 21 27 29.9990000  0  7 29 27 14 18 19 22 28
  20530026.808    -1874724.615 7  -1417288.284 9
  24632833.401    -2188584.048 3  -1503344.989 3
  21561106.378     1246523.801 6    951392.804 8
  21013495.917    -3826955.815 7  -2898689.929 8
  22133535.980    -4004742.315 6  -3032775.784 6
  22104953.464      580729.801 6    447359.917 7
  24572792.198    -1803389.669 4  -1227956.512 4
 94  1 22 21 27 59.9990000  0  7 29 27 14 18 19 22 28
  20521477.222    -1919651.755 7  -1452296.437 9
  24608547.519    -2316237.682 3  -1602815.292 2
  21569027.354     1288141.373 6    983822.054 7
  20994568.144    -3926418.886 7  -2976193.591 8
  22113837.019    -4108280.878 6  -3113455.136 6
  22109665.964      605489.745 6    466653.349 7
  24551577.737    -1914791.486 3  -1314762.967 3
 94  1 22 21 28 29.9990000  0  7 29 27 14 18 19 22 28
  20512988.761    -1964257.428 7  -1487054.097 9
  24584276.456    -2443774.871 3  -1702194.860 3
  21577016.542     1330130.268 6   1016540.648 7
  20975687.323    -4025642.912 7  -3053510.992 9
  22094174.370    -4211579.891 6  -3193947.815 6
  22114462.308      630692.591 6    486291.914 7
  24530431.276    -2026014.268 4  -1401429.939 2
 94  1 22 21 28 59.9990000  0  7 29 27 14 18 19 22 28
  20504564.987    -2008524.133 7  -1521547.636 9
  24560029.479    -2571169.053 3  -1801462.978 4
  21585081.112     1372513.230 6   1049566.300 7
  20956856.612    -4124597.011 7  -3130618.069 9
  22074568.542    -4314617.629 6  -3274236.932 6
  22119347.097      656362.131 6    506294.132 7
  24509300.042    -2137038.948 4  -1487942.532 2
 94  1 22 21 29 29.9990000  0  7 29 27 14 18 19 22 28
  20496204.183    -2052462.552 7  -1555785.359 9
  24535815.128    -2698432.560 3  -1900629.318 3
  21593222.315     1415299.687 6   1082906.362 7
  20938077.128    -4223279.638 7  -3207513.598 9
  22055013.503    -4417396.855 6  -3354324.600 7
  22124320.089      682490.369 6    526653.773 7
  24488206.769    -2247861.941 4  -1574297.963 5
 94  1 22 21 29 59.9990000  0  7 29 27 14 18 19 22 28
  20487905.479    -2096072.343 7  -1589767.010 9
  24511620.800    -2825578.431 3  -1999703.963 3
  21601445.831     1458505.897 6   1116573.505 7
  20919350.417    -4321694.659 7  -3284200.609 8
  22035499.144    -4519917.523 6  -3434210.795 6
  22129378.362      709067.767 6    547363.413 7
  24467158.519    -2358477.961 3  -1660492.167 3
 94  1 22 21 30 29.9990000  0  7 29 27 14 18 19 22 28
  20479667.128    -2139365.705 7  -1623502.096 9
  24487448.495    -2952604.761 3  -2098685.456 3
  21609749.354     1502131.289 6   1150567.275 7
  20900671.151    -4419854.529 7  -3360688.806 8
  22016041.987    -4622180.327 6  -3513896.061 6
  22134520.651      736096.549 6    568424.790 7
  24446145.737    -2468903.314 4  -1746537.791 4
 94  1 22 21 30 59.9990000  0  7 29 27 14 18 19 22 28
  20471490.628    -2182332.909 7  -1656983.036 9
  24463300.229    -3079497.706 3  -2197562.999 3
  21618128.456     1546168.556 6   1184881.992 7
  20882041.120    -4517754.348 7  -3436974.356 9
  21996630.894    -4724195.942 6  -3593388.713 7
  22139752.300      763589.273 6    589847.675 7
  24425166.636    -2579124.919 4  -1832424.654 3
 94  1 22 21 31 29.9990000  0  7 29 27 14 18 19 22 28
  20463375.800    -2224974.902 7  -1690210.565 9
  24439179.964    -3206259.124 3  -2296338.066 3
  21626581.073     1590599.828 6   1219503.713 7
  20863462.472    -4615392.910 7  -3513056.343 9
  21977261.323    -4825960.996 6  -3672686.124 7
  22145071.526      791536.996 6    611625.098 7
  24404233.558    -2689136.445 3  -1918147.827 4
 94  1 22 21 31 59.9990000  0  7 29 27 14 18 19 22 28
  20455325.933    -2267278.118 7  -1723174.108 9
  24415086.503    -3332878.918 4  -2395002.763 2
  21635111.886     1635417.078 6   1254426.199 7
  20844932.776    -4712757.548 7  -3588924.874 9
  21957948.003    -4927466.701 6  -3751781.437 7
  22150476.495      819946.826 6    633762.596 7
  24383341.417    -2798932.205 3  -2003702.900 3
 94  1 22 21 32 29.9990000  0  7 29 27 14 18 19 22 28
  20447337.870    -2309256.766 7  -1755884.745 9
  24391009.597    -3459367.646 3  -2493565.298 4
  21643706.706     1680595.085 6   1289629.786 7
  20826454.964    -4809864.475 7  -3664592.588 9
  21938678.628    -5028737.590 6  -3830693.769 7
  22155966.628      848796.181 6    656242.589 7
  24362477.519    -2908537.082 3  -2089109.205 2
 94  1 22 21 32 59.9990000  0  7 29 27 14 18 19 22 28
  20439416.261    -2350893.077 7  -1788328.631 9
  24366967.151    -3585723.042 3  -2592023.932 4
  21652373.136     1726131.739 6   1325112.837 7
  20808027.089    -4906705.975 7  -3740053.482 9
  21919449.964    -5129764.958 6  -3909416.357 7
  22161537.792      878071.642 6    679054.615 7
  24341667.714    -3017942.497 4  -2174360.111 3
 94  1 22 21 33 29.9990000  0  7 29 27 14 18 19 22 28
  20431553.503    -2392199.560 7  -1820515.507 9
  24342949.339    -3711955.879 3  -2690387.025 4
  21661105.948     1772023.196 6   1360872.359 7
  20789646.253    -5003296.986 7  -3815319.198 9
  21900273.862    -5230541.031 6  -3987943.117 7
  22167184.503      907748.329 6    702179.277 7
  24320875.315    -3127166.115 4  -2259469.375 4
 94  1 22 21 33 59.9990000  0  7 29 27 14 18 19 22 28
  20423757.042    -2433169.789 7  -1852440.370 9
  24318950.862    -3838066.389 4  -2788654.793 4
  21669907.550     1818278.338 6   1396915.269 7
  20771308.175    -5099654.562 7  -3890403.013 9
  21881146.214    -5331076.826 6  -4066282.656 7
  22172909.120      937828.321 6    725618.196 7
  24300125.542    -3236216.183 4  -2344443.413 3
 94  1 22 21 34 29.9990000  0  7 29 27 14 18 19 22 28
  20416028.784    -2473789.149 7  -1884091.824 9
  24294979.503    -3964028.590 3  -2886807.014 4
  21678784.808     1864910.850 6   1433252.241 7
  20753018.784    -5195771.164 7  -3965299.048 9
  21862062.378    -5431354.526 6  -4144421.079 7
  22178712.558      968324.204 6    749381.185 7
  24279410.847    -3345080.703 4  -2429272.878 3
 94  1 22 21 34 59.9990000  0  7 29 27 14 18 19 22 28
  20408365.034    -2514056.034 7  -1915468.628 9
  24271036.526    -4089838.720 3  -2984840.714 4
  21687725.245     1911901.282 6   1469868.095 7
  20734774.800    -5291651.140 7  -4040010.706 9
  21843026.878    -5531361.052 6  -4222348.205 7
  22184594.401      999237.549 6    773469.465 7
  24258730.167    -3453757.719 4  -2513956.245 3
 94  1 22 21 35 29.9990000  0  7 29 27 14 18 19 22 28
  20400768.878    -2553978.927 7  -1946577.389 9
  24247124.394    -4215509.589 4  -3082765.942 4
  21696732.448     1959245.045 6   1506759.280 7
  20716571.815    -5387302.593 7  -4114544.287 9
  21824050.128    -5631104.702 6  -4300070.493 7
  22190557.073     1030568.743 6    797883.346 7
  24238082.378    -3562234.520 4  -2598483.593 2
 94  1 22 21 35 59.9990000  0  7 29 27 14 18 19 22 28
  20393241.042    -2593540.661 7  -1977404.728 9
  24223238.737    -4341042.932 4  -3180583.974 2
  21705812.581     2006950.942 6   1543932.645 7
  20698416.214    -5482707.459 7  -4188885.729 9
  21805120.089    -5730582.383 6  -4377585.519 7
  22196599.854     1062323.600 6    822627.345 7
  24217486.347    -3670485.769 4  -2682835.222 4
 94  1 22 21 36 29.9990000  0  7 29 27 14 18 19 22 28
  20385780.276    -2632737.849 7  -2007948.008 9
  24199370.425    -4466440.571 3  -3278296.296 4
  21714955.706     2055001.450 6   1581374.545 7
  20680314.237    -5577843.977 7  -4263018.062 9
  21786241.933    -5829780.286 6  -4454882.557 7
  22202722.300     1094497.515 6    847697.890 6
  24196929.448    -3778506.634 4  -2767007.308 4
 94  1 22 21 36 59.9990000  0  7 29 27 14 18 19 22 28
  20378392.245    -2671570.437 7  -2038207.179 9
  24175533.862    -4591726.734 3  -3375921.789 2
  21724160.815     2103388.638 6   1619078.793 7
  20662261.440    -5672699.547 7  -4336931.482 9
  21767420.511    -5928701.564 6  -4531964.042 7
  22208923.745     1127085.362 6    873090.973 7
  24176425.526    -3886278.984 5  -2850985.756 4
 94  1 22 21 37 29.9990000  0  7 29 27 14 18 19 22 28
  20371069.175    -2710052.255 7  -2068193.029 9
  24151714.019    -4716912.596 4  -3473469.119 5
  21733436.792     2152122.685 6   1657053.326 7
  20644267.979    -5767264.698 7  -4410618.591 9
  21748645.433    -6027363.312 6  -4608843.279 7
  22215201.245     1160078.279 6    898799.692 7
  24155961.698    -3993800.383 4  -2934768.682 4
 94  1 22 21 37 59.9990000  0  7 29 27 14 18 19 22 28
  20363811.823    -2748195.145 7  -2097914.785 9
  24127914.003    -4841981.288 5  -3570925.127 2
  21742773.745     2201184.953 6   1695283.616 7
  20626330.198    -5861535.080 7  -4484076.020 9
  21729914.175    -6125775.446 6  -4685528.027 7
  22221554.386     1193466.658 6    924816.562 7
  24135536.347    -4101095.316 4  -3018375.088 4
 94  1 22 21 38 29.9990000  0  7 29 27 14 18 19 22 28
  20356614.948    -2786004.966 7  -2127376.994 9
  24104132.136    -4966920.660 4  -3668280.374 3
  21752171.964     2250571.249 6   1733766.401 7
  20608444.323    -5955514.361 7  -4557306.608 9
  21711237.425    -6223946.533 6  -4762024.941 7
  22227985.730     1227251.847 6    951142.632 7
  24115174.628    -4208155.125 5  -3101798.301 4
 94  1 22 21 38 59.9990000  0  7 29 27 14 18 19 22 28
  20349483.089    -2823488.918 7  -2156585.271 9
  24080381.190    -5091720.097 3  -3765526.597 2
  21761634.573     2300304.166 6   1772519.281 7
  20590617.144    -6049198.296 7  -4630307.064 9
  21692600.675    -6321882.016 6  -4838338.266 7
  22234490.315     1261441.253 6    977783.685 6
  24094846.894    -4314959.566 5  -3185022.519 4
 94  1 22 21 39 29.9990000  0  7 29 27 14 18 19 22 28
  20342412.737    -2860643.735 7  -2185537.094 9
  24056670.487    -5216360.037 4  -3862648.549 3
  21771163.214     2350385.105 6   1811543.361 7
  20572844.503    -6142593.744 7  -4703082.717 9
  21674007.612    -6419576.415 6  -4914463.741 7
  22241074.292     1296036.522 6   1004740.998 6
  24074572.737    -4421511.264 4  -3268049.784 4
 94  1 22 21 39 59.9990000  0  7 29 27 14 18 19 22 28
  20335407.714    -2897452.892 7  -2214219.570 9
  24032983.636    -5340834.182 4  -3959641.295 2
  21780761.011     2400810.740 6   1850836.026 7
  20555128.003    -6235701.289 7  -4775634.036 9
  21655462.206    -6517025.273 6  -4990397.884 7
  22247736.737     1331050.191 6   1032024.331 6
  24054339.597    -4527796.864 4  -3350869.715 4
 94  1 22 21 40 29.9990000  0  7 29 27 14 18 19 22 28
  20328466.237    -2933930.236 7  -2242643.484 9
  24009317.159    -5465176.357 4  -4056531.180 2
  21790419.558     2451568.036 6   1890387.137 6
  20537460.519    -6328536.916 7  -4847973.468 9
  21636962.675    -6614243.809 6  -5066152.545 7
  22254477.394     1366475.331 6   1059628.296 6
  24034171.448    -4633813.751 5  -3433480.235 4
 94  1 22 21 40 59.9990000  0  7 29 27 14 18 19 22 28
  20321591.050    -2970062.907 7  -2270798.822 9
  23985679.948    -5589375.314 4  -4153309.499 3
  21800142.698     2502659.663 6   1930198.760 6
  20519847.464    -6421091.208 7  -4920093.677 9
  21618512.644    -6711210.241 6  -5141710.763 7
  22261298.073     1402318.213 6   1087557.768 7
  24014052.636    -4739562.078 5  -3515881.489 5
 94  1 22 21 41 29.9990000  0  7 29 27 14 18 19 22 28
  20314782.151    -3005840.599 7  -2298677.569 9
  23962078.870    -5713433.735 4  -4249978.269 5
  21809927.331     2554070.691 6   1970259.257 6
  20502288.573    -6513362.906 7  -4991993.695 9
  21600109.175    -6807928.885 6  -5217075.917 7
  22268197.026     1438572.181 6   1115807.541 7
  23993966.925    -4845052.433 4  -3598081.743 4
 94  1 22 21 41 59.9990000  0  7 29 27 14 18 19 22 28
  20308040.565    -3041269.844 7  -2326284.768 9
  23938496.128    -5837361.984 4  -4346545.558 4
  21819766.104     2605791.657 6   2010561.291 6
  20484783.151    -6605352.245 7  -5063673.670 9
  21581748.776    -6904413.432 6  -5292258.619 7
  22275172.011     1475219.725 6   1144364.032 6
  23973950.214    -4950284.877 5  -3680081.015 4
 94  1 22 21 42 29.9990000  0  8 29 27 14 18 19 22 28 31
  20301366.628    -3076344.372 7  -2353615.584 9
  23914934.769    -5961167.434 4  -4443017.176 4
  21829667.558     2657821.340 6   2051103.875 7
  20467330.089    -6697067.163 7  -5135139.828 9
  21563434.292    -7000656.541 6  -5367253.211 7
  22282216.120     1512236.435 6   1173208.168 6
  23953972.151    -5055262.508 5  -3761881.736 4
  24310051.269     -128346.964 2
 94  1 22 21 42 59.9990000  0  8 29 27 14 18 19 22 28 31
  20294763.245    -3111036.018 7  -2380648.044 9
  23891404.776    -6084832.987 3  -4539379.807 3
  21839633.519     2710173.663 6   2091897.861 6
  20449932.065    -6788494.154 7  -5206381.625 9
  21545170.487    -7096632.546 6  -5442039.668 7
  22289328.550     1549618.138 6   1202336.725 6
  23934046.886    -5159983.134 5  -3843482.186 4
  24285640.425     -256713.282 3        -0.07411
 94  1 22 21 43 29.9980000  0  8 29 27 14 18 19 22 28 31
  20288237.451    -3145338.686 7  -2407377.398 9
  23867897.443    -6208359.371 4  -4635634.020 4
  21849654.061     2762846.196 6   2132941.361 6
  20432589.467    -6879632.876 7  -5277398.791 9
  21526955.795    -7192349.715 6  -5516624.442 7
  22296510.639     1587356.648 6   1231743.318 6
  23914165.178    -5264443.162 5  -3924879.578 4
  24261210.896     -385101.676 3   -100042.768 1
 94  1 22 21 43 59.9980000  0  8 29 27 14 18 19 22 28 31
  20281782.381    -3179251.417 7  -2433802.907 9
  23844415.584    -6331753.977 4  -4731785.522 2
  21859740.287     2815857.707 6   2174248.997 6
  20415300.725    -6970494.557 7  -5348200.091 9
  21508791.795    -7287799.523 6  -5591000.868 7
  22303762.576     1625462.598 6   1261436.215 6
  23894341.256    -5368634.729 5  -4006067.783 5
  24236774.693     -513517.563 3   -200106.863 1
 94  1 22 21 44 29.9980000  0  8 29 27 14 18 19 22 28 31
  20275404.920    -3212769.849 7  -2459921.168 9
  23820962.607    -6455005.216 4  -4827825.304 4
  21869896.404     2869218.870 6   2215829.089 6
  20398063.631    -7061063.364 7  -5418773.176 9
  21490683.162    -7382964.956 6  -5665155.715 7
  22311086.490     1663948.311 6   1291425.036 6
  23874563.131    -5472561.205 5  -4087049.423 4
  24212337.623     -641955.200 3   -300187.924 1
 94  1 22 21 44 59.9980000  0  8 29 27 14 18 19 22 28 31
  20269096.514    -3245922.681 7  -2485754.554 9
  23797531.998    -6578116.714 3  -4923756.200 5
  21880114.623     2922908.202 6   2257664.888 6
  20380886.865    -7151334.692 7  -5489114.461 9
  21472624.529    -7477860.840 6  -5739100.532 7
  22318479.287     1702809.487 6   1321706.420 6
  23854839.818    -5576231.679 5  -4167831.562 4
  24187889.139     -770414.250 3   -400285.643 1
 94  1 22 21 45 29.9980000  0  8 29 27 14 18 19 22 28 31
  20262857.811    -3278711.022 7  -2511303.914 9
  23774131.334    -6701077.978 3  -5019570.039 5
  21890394.186     2976940.256 6   2299767.743 6
  20363768.787    -7241287.638 7  -5559207.656 9
  21454617.443    -7572483.135 6  -5812832.162 7
  22325951.146     1742061.295 6   1352292.195 6
  23835161.920    -5679617.969 5  -4248392.261 4
  24163446.920     -898867.169 3   -500378.597 1
 94  1 22 21 45 59.9980000  0  8 29 27 14 18 19 22 28 31
  20256682.732    -3311158.672 7  -2536587.795 9
  23750760.014    -6823902.414 4  -5115277.252 4
  21900737.021     3031293.637 6   2342120.987 6
  20346711.607    -7330926.467 7  -5629056.071 9
  21436664.865    -7666838.202 6  -5886355.548 7
  22333490.514     1781686.483 6   1383168.936 6
  23815539.943    -5782728.891 5  -4328738.382 5
  24139000.271    -1027314.810 3   -600467.449 1
 94  1 22 21 46 29.9980000  0  8 29 27 14 18 19 22 28 31
  20250571.365    -3343272.415 7  -2561611.490 9
  23727417.912    -6946586.949 5  -5210875.468 5
  21911134.123     3085941.766 6   2384703.899 6
  20329713.654    -7420244.559 7  -5698654.578 9
  21418756.607    -7760938.876 6  -5959680.727 7
  22341098.982     1821661.179 6   1414318.008 6
  23795975.350    -5885569.401 5  -4408873.791 5
  24114558.764    -1155761.279 3   -700555.395 2
 94  1 22 21 46 59.9980000  0  8 29 27 14 18 19 22 28 31
  20244525.240    -3375042.573 7  -2586367.460 9
  23704100.193    -7069122.139 5  -5306357.340 3
  21921594.357     3140888.446 6   2427519.449 6
  20312780.842    -7509234.322 7  -5767997.238 9
  21400897.576    -7854784.230 6  -6032806.939 7
  22348770.717     1861988.994 6   1445742.249 6
  23776462.475    -5988108.038 5  -4488773.965 5
  24090118.014    -1284186.859 3   -800627.064 1
 94  1 22 21 47 29.9980000  0  8 29 27 14 18 19 22 28 31
  20238544.459    -3406478.105 7  -2610862.684 9
  23680805.490    -7191527.606 4  -5401738.128 4
  21932102.381     3196118.711 6   2470555.964 6
  20295907.209    -7597911.736 7  -5837096.507 9
  21383080.256    -7948399.551 6  -6105753.917 7
  22356510.842     1902655.005 6   1477429.988 6
  23756995.631    -6090354.573 5  -4568446.534 3
  24065686.795    -1412599.823 3   -900688.934 1
 94  1 22 21 47 59.9980000  0  8 29 27 14 18 19 22 28 31
  20232625.443    -3437576.407 7  -2635095.136 9
  23657537.686    -7313805.306 4  -5497019.342 4
  21942664.850     3251621.061 6   2513804.486 6
  20279090.514    -7686285.294 7  -5905959.023 9
  21365310.545    -8041788.510 6  -6178524.506 7
  22364311.428     1943653.981 6   1509377.191 6
  23737598.506    -6192315.456 5  -4647896.534 5
  24041248.576    -1541012.087 3  -1000750.297 2
 94  1 22 21 48 29.9980000  0  8 29 27 14 18 19 22 28 31
  20226776.623    -3468314.165 7  -2659046.635 9
  23634293.662    -7435957.922 5  -5592203.118 4
  21953278.600     3307395.777 6   2557265.241 6
  20262330.678    -7774347.901 7  -5974579.225 9
  21347585.006    -8134947.811 6  -6251116.138 7
  22372180.756     1985002.121 6   1541596.472 6
  23718255.889    -6293972.544 5  -4727109.806 5
  24016813.818    -1669416.273 3  -1100805.372 2
 94  1 22 21 48 59.9980000  0  8 29 27 14 18 19 22 28 31
  20220997.709    -3498681.561 7  -2682709.549 9
  23611066.787    -7557993.823 5  -5687295.931 5
  21963947.193     3363454.842 6   2600947.569 6
  20245631.607    -7862109.341 7  -6042964.764 9
  21329898.506    -8227878.758 6  -6323529.835 7
  22380118.787     2026715.699 6   1574100.503 6
  23698969.553    -6395323.341 5  -4806084.398 5
  23992383.311    -1797790.372 3  -1200837.036 2
 94  1 22 21 49 29.9980000  0  8 29 27 14 18 19 22 28 31
  20215295.232    -3528648.219 7  -2706060.193 9
  23587870.115    -7679898.107 5  -5782286.208 5
  21974670.475     3419800.733 6   2644853.396 6
  20228989.951    -7949562.548 7  -6111110.104 9
  21312260.201    -8320564.944 6  -6395752.810 7
  22388128.826     2068813.157 6   1606903.668 6
  23679740.201    -6496360.947 5  -4884814.961 5
  23967960.037    -1926121.992 3  -1300835.590 1
 94  1 22 21 49 59.9980000  0  8 29 27 14 18 19 22 28 31
  20209668.772    -3558215.039 7  -2729099.280 9
  23564705.186    -7801661.622 5  -5877166.758 3
  21985446.967     3476422.162 6   2688973.928 6
  20212401.967    -8036720.382 7  -6179025.295 9
  21294670.834    -8413005.818 6  -6467784.630 7
  22396209.295     2111280.989 6   1639995.435 6
  23660578.912    -6597086.087 5  -4963302.044 5
  23943551.092    -2054419.127 3  -1400807.335 1
 94  1 22 21 50 29.9980000  0  8 29 27 14 18 19 22 28 31
  20204120.209    -3587376.724 7  -2751822.678 9
  23541556.600    -7923279.677 5  -5971934.026 3
  21996268.342     3533312.196 6   2733303.755 6
  20195874.232    -8123585.598 7  -6246712.473 9
  21277123.193    -8505210.987 6  -6539632.777 7
  22404360.279     2154107.019 6   1673366.316 6
  23641465.193    -6697500.064 5  -5041546.653 5
  23919138.920    -2182672.914 3  -1500745.263 2
 94  1 22 21 50 59.9980000  0  8 29 27 14 18 19 22 28 31
  20198645.436    -3616143.909 7  -2774238.673 9
  23518442.139    -8044730.510 4  -6066570.996 5
  22007145.561     3590475.613 6   2777846.613 6
  20179400.232    -8210149.452 7  -6314164.826 9
  21259626.795    -8597171.857 6  -6611290.580 7
  22412577.326     2197279.805 6   1707007.386 6
  23622415.975    -6797598.067 5  -5119545.050 4
  23894749.318    -2310871.590 4  -1600640.309 2
 94  1 22 21 51 29.9980000  0  8 29 27 14 18 19 22 28 31
  20193241.592    -3644540.212 7  -2796365.671 9
  23495365.373    -8166021.113 5  -6161083.080 5
  22018072.061     3647879.533 6   2822576.872 6
  20162988.014    -8296403.427 7  -6381375.713 9
  21242170.396    -8688890.975 6  -6682759.999 7
  22420850.420     2240766.418 6   1740892.993 6
  23603432.631    -6897381.029 5  -5197297.957 4
  23870358.779    -2439043.880 4  -1700514.785 2
 94  1 22 21 51 59.9980000  0  8 29 27 14 18 19 22 28 31
  20187907.350    -3672568.826 7  -2818206.158 9
  23472312.928    -8287162.131 5  -6255478.588 5
  22029041.975     3705535.755 6   2867503.748 6
  20146636.459    -8382327.850 7  -6448329.804 9
  21224764.982    -8780354.071 6  -6754029.915 7
  22429184.678     2284558.411 6   1775016.564 6
  23584503.834    -6996843.084 5  -5274800.822 4
  23845975.404    -2567180.530 4  -1800361.495 2
 94  1 22 21 52 29.9980000  0  8 29 27 14 18 19 22 28 31
  20182644.873    -3700230.193 7  -2839760.485 9
  23449282.443    -8408175.954 5  -6349774.991 5
  22040061.576     3763446.678 6   2912629.068 6
  20130348.545    -8467915.743 7  -6515021.661 9
  21207415.412    -8871543.476 6  -6825086.574 7
  22437576.186     2328660.557 6   1809381.813 6
  23565639.100    -7095979.783 5  -5352050.141 5
  23821599.037    -2695264.530 4  -1900167.200 1
 94  1 22 21 52 59.9980000  0  8 29 27 14 18 19 22 28 31
  20177447.967    -3727541.896 7  -2861042.335 9
  23426279.568    -8529071.205 5  -6443979.033 4
  22051132.014     3821617.560 6   2957956.968 6
  20114129.279    -8553164.877 7  -6581449.551 9
  21190111.303    -8962453.686 6  -6895925.682 7
  22446026.193     2373069.886 6   1843986.419 6
  23546834.186    -7194798.107 5  -5429051.390 5
  23797237.561    -2823302.791 4  -1999937.219 2
 94  1 22 21 53 29.9980000  0  8 29 27 14 18 19 22 28 31
  20172319.865    -3754488.363 7  -2882039.595 9
  23403292.904    -8649850.687 5  -6538092.861 4
  22062254.217     3880072.009 6   3003505.828 6
  20097972.178    -8638065.795 7  -6647606.100 9
  21172867.623    -9053076.157 7  -6966540.573 7
  22454539.678     2417800.608 6   1878841.472 6
  23528087.943    -7293298.729 5  -5505805.074 5
  23772878.646    -2951286.653 3  -2099664.885 2
 94  1 22 21 53 59.9980000  0  8 29 27 14 18 19 22 28 31
  20167261.943    -3781070.210 7  -2902752.730 9
  23380332.154    -8770517.556 5  -6632118.942 5
  22073434.045     3938817.252 6   3049281.283 6
  20081876.717    -8722638.099 7  -6713506.591 9
  21155679.834    -9143419.241 7  -7036937.761 7
  22463112.607     2462861.040 6   1913953.432 6
  23509399.240    -7391500.517 5  -5582325.895 5
  23748544.381    -3079202.791 4  -2199339.769 2
 94  1 22 21 54 29.9980000  0  8 29 27 14 18 19 22 28 31
  20162270.561    -3807296.521 7  -2923188.827 9
  23357393.482    -8891049.703 5  -6726040.017 5
  22084666.607     3997833.280 6   3095267.741 6
  20065843.303    -8806897.922 7  -6779163.584 9
  21138534.936    -9233509.457 7  -7107137.916 7
  22471750.006     2508246.789 6   1949318.882 6
  23490768.248    -7489408.863 5  -5658618.045 5
  23724205.498    -3207056.909 3  -2298966.274 1
 94  1 22 21 54 59.9980000  0  8 29 27 14 18 19 22 28 31
  20157349.764    -3833159.041 7  -2943341.448 9
  23334488.334    -9011429.801 5  -6819842.594 5
  22095945.232     4057106.763 6   3141454.795 6
  20049870.803    -8890838.735 7  -6844571.996 9
  21121432.936    -9323377.384 7  -7177164.846 7
  22480447.053     2553948.370 6   1984930.432 6
  23472196.521    -7587024.432 5  -5734682.056 5
  23699888.662    -3334861.617 4  -2398554.262 3
 94  1 22 21 55 29.9980000  0  8 29 27 14 18 19 22 28 31
  20152500.107    -3858642.252 7  -2963198.507 9
  23311606.647    -9131670.521 5  -6913536.588 5
  22107267.107     4116607.816 6   3187819.212 6
  20033957.186    -8974469.246 7  -6909738.611 9
  21104369.061    -9413038.542 7  -7247030.669 8
  22489204.420     2599958.640 6   2020782.523 6
  23453679.404    -7684327.214 5  -5810502.325 5
  23675578.186    -3462626.813 4  -2498111.460 3
 94  1 22 21 55 59.9980000  0  8 29 27 14 18 19 22 28 31
  20147723.232    -3883750.645 7  -2982763.513 9
  23288753.295    -9251765.331 5  -7007116.886 5
  22118627.623     4176303.411 6   3234335.177 6
  20018100.225    -9057798.012 7  -6974670.113 9
  21087342.451    -9502512.395 7  -7316750.542 8
  22498015.115     2646261.863 6   2056862.886 6
  23435222.670    -7781303.451 5  -5886068.143 4
  23651272.959    -3590352.555 4  -2597637.877 2
 94  1 22 21 56 29.9980000  0  8 29 27 14 18 19 22 28 31
  20143019.693    -3908463.956 7  -3002020.632 9
  23265926.303    -9371708.088 5  -7100578.672 5
  22130021.428     4236198.967 6   3281006.996 6
  20002305.975    -9140801.273 7  -7039347.946 9
  21070353.350    -9591795.048 7  -7386321.398 8
  22506880.943     2692854.034 6   2093168.442 6
  23416835.639    -7877922.960 5  -5961355.956 4
  23626973.889    -3718027.966 4  -2697125.059 2
 94  1 22 21 56 59.9980000  0  8 29 27 14 18 19 22 28 31
  20138392.959    -3932774.465 7  -3020963.903 9
  23243124.529    -9491520.679 5  -7193939.054 5
  22141466.592     4296313.009 6   3327849.048 6
  19986573.404    -9223466.641 7  -7103762.512 9
  21053406.201    -9680860.874 7  -7455723.327 8
  22515805.193     2739740.234 6   2129703.086 6
  23398523.975    -7974170.109 5  -6036353.622 5
  23602689.584    -3845636.659 4  -2796560.236 2
 94  1 22 21 57 29.9980000  0  8 29 27 14 18 19 22 28 31
  20133840.920    -3956698.986 7  -3039606.399 9
  23220356.420    -9611209.749 5  -7287203.167 5
  22152947.404     4356655.372 6   3374869.017 6
  19970902.990    -9305802.346 7  -7167920.182 9
  21036504.170    -9769689.038 7  -7524940.049 8
  22524782.764     2786929.562 6   2166473.945 6
  23380278.451    -8070044.517 5  -6111060.838 5
  23578422.459    -3973161.055 3  -2895929.743 2
 94  1 22 21 57 59.9980000  0  8 29 27 14 18 19 22 28 31
  20129360.967    -3980235.944 7  -3057946.898 9
  23197604.686    -9730751.100 5  -7380352.167 5
  22164478.709     4417262.658 6   3422095.411 6
  19955305.295    -9387781.820 7  -7231800.277 9
  21019649.678    -9858245.377 7  -7593944.969 8
  22533825.256     2834441.178 6   2203495.925 6
  23362107.686    -8165543.951 5  -6185475.861 5
  23554179.107    -4100563.149 4  -2995203.957 2
 94  1 22 21 58 29.9980000  0  8 29 27 14 18 19 22 28 31
  20124955.943    -4003387.641 7  -3075987.194 9
  23174879.311    -9850166.252 5  -7473402.856 5
  22176063.928     4478143.350 6   3469534.849 6
  19939776.076    -9469394.169 7  -7295394.302 9
  21002852.350    -9946517.920 7  -7662728.741 8
  22542929.029     2882286.896 6   2240778.234 6
  23344001.975    -8260681.886 5  -6259609.185 5
  23529959.467    -4227859.607 4  -3094395.842 3
 94  1 22 21 58 59.9980000  0  8 29 27 14 18 19 22 28 31
  20120620.998    -4026160.427 7  -3093732.235 9
  23152181.928    -9969444.201 5  -7566346.640 5
  22187704.529     4539296.880 6   3517186.895 6
  19924313.975    -9550636.823 7  -7358700.258 9
  20986112.709   -10034494.268 7  -7731281.723 8
  22552100.686     2930479.124 6   2278330.566 6
  23325967.943    -8355455.302 5  -6333458.476 5
  23505750.076    -4355054.659 3  -3193508.732 1
 94  1 22 21 59 29.9980000  0  8 29 27 14 18 19 22 28 31
  20116361.240    -4048553.526 7  -3111181.412 9
  23129514.521   -10088566.278 5  -7659168.940 5
  22199388.459     4600707.617 6   3565039.352 6
  19908926.576    -9631514.923 7  -7421722.138 9
  20969419.639   -10122198.333 7  -7799622.531 8
  22561331.873     2978998.947 6   2316138.163 6
  23307998.654    -8449869.908 5  -6407028.179 5
  23481563.115    -4482161.563 4  -3292552.934 2
 94  1 22 21 59 59.9980000  0  8 29 27 14 18 19 22 28 31
  20112171.732    -4070563.887 7  -3128332.356 9
  23106872.811   -10207541.280 5  -7751876.636 5
  22211116.045     4662350.494 6   3613072.701 6
  19893601.396    -9712026.328 7  -7484458.284 9
  20952781.779   -10209652.823 7  -7867768.861 8
  22570621.865     3027820.707 6   2354181.039 6
  23290098.670    -8543939.160 5  -6480328.780 5
  23457389.193    -4609202.865 4  -3391546.041 1
 94  1 22 22  0 29.9980000  0  8 29 27 14 18 19 22 28 31
  20108053.811    -4092203.381 7  -3145194.314 9
  23084260.217   -10326385.669 5  -7844482.566 5
  22222883.873     4724189.311 5   3661258.730 6
  19878348.701    -9792204.035 7  -7546934.413 9
  20936177.279   -10296892.016 7  -7935747.430 8
  22579965.498     3076914.332 6   2392435.758 6
  23272262.436    -8637679.513 5  -6553373.121 5
  23433219.607    -4736198.091 4  -3490503.265 2
 94  1 22 22  0 59.9980000  0  8 29 27 14 18 19 22 28 31
  20104008.928    -4113461.436 7  -3161759.050 9
  23061671.217   -10445083.175 5  -7936974.046 5
  22234691.631     4786223.746 6   3709597.184 6
  19863147.779    -9872066.974 7  -7609165.266 9
  20919618.100   -10383920.007 7  -8003561.436 8
  22589353.771     3126249.913 6   2430879.019 6
  23254484.654    -8731077.297 5  -6626150.518 5
  23409067.951    -4863127.048 4  -3589408.851 3
 94  1 22 22  1 29.9970000  0  8 29 27 14 18 19 22 28 31
  20100036.806    -4134335.359 7  -3178024.452 9
  23039110.501   -10563639.941 5  -8029355.859 5
  22246532.696     4848445.308 5   3758081.455 6
  19848011.087    -9951612.397 7  -7671148.705 9
  20903097.751   -10470737.618 7  -8071211.503 8
  22598788.071     3175820.666 6   2469505.528 5
  23236780.290    -8824128.596 5  -6698657.933 5
  23384929.603    -4989971.689 4  -3688248.742 2
 94  1 22 22  1 59.9970000  0  8 29 27 14 18 19 22 28 31
  20096136.548    -4154831.672 7  -3193995.628 9
  23016572.329   -10682083.935 5  -8121649.833 5
  22258408.868     4910851.714 5   3806709.762 6
  19832935.813   -10030841.328 7  -7732885.527 9
  20886617.993   -10557328.240 7  -8138684.689 8
  22608267.509     3225639.060 6   2508324.991 6
  23219139.103    -8916830.312 5  -6770892.992 5
  23360802.696    -5116736.390 4  -3787026.341 3
 94  1 22 22  2 29.9970000  0  8 29 27 14 18 19 22 28 31
  20092309.470    -4174942.471 7  -3209666.392 9
  22994057.235   -10800406.604 5  -8213849.236 5
  22270324.071     4973461.485 5   3855496.530 5
  19817921.384   -10109744.916 7  -7794368.834 9
  20870186.563   -10643673.144 7  -8205966.419 8
  22617795.446     3275711.007 6   2547342.036 5
  23201573.149    -9009154.241 5  -6842833.670 5
  23336702.649    -5243398.769 4  -3885724.248 3
 94  1 22 22  2 59.9970000  0  8 29 27 14 18 19 22 28 31
  20088551.876    -4194690.183 7  -3225054.230 9
  22971562.399   -10918623.619 5  -8305966.323 5
  22282272.173     5036252.685 6   3904424.679 5
  19802969.751   -10188318.280 7  -7855594.818 9
  20853800.329   -10729784.880 7  -8273066.439 8
  22627370.024     3326028.774 6   2586550.630 5
  23184070.399    -9101097.599 5  -6914477.803 5
  23312620.509    -5369974.035 4  -3984354.254 3
 94  1 22 22  3 29.9970000  0  8 29 27 14 18 19 22 28 31
  20084864.899    -4214069.253 7  -3240154.826 9
  22949085.493   -11036727.013 5  -8397994.904 5
  22294251.556     5099223.862 5   3953493.063 5
  19788086.095   -10266528.292 7  -7916537.685 9
  20837460.892   -10815645.402 7  -8339970.729 8
  22636998.259     3376622.056 6   2625973.908 5
  23166650.954    -9192651.189 5  -6985818.239 5
  23288552.837    -5496446.168 4  -4082903.920 2
 94  1 22 22  3 59.9970000  0  8 29 27 14 18 19 22 28 31
  20081247.767    -4233071.247 7  -3254961.588 9
  22926634.009   -11154705.246 5  -8489925.966 5
  22306268.814     5162371.739 5   4002699.135 5
  19773273.040   -10344374.346 7  -7977196.932 9
  20821169.251   -10901264.683 7  -8406687.022 8
  22646676.306     3427475.096 6   2665599.597 5
  23149305.087    -9283826.628 5  -7056864.024 5
  23264509.868    -5622806.129 5  -4181366.195 2
 94  1 22 22  4 29.9970000  0  8 29 27 14 18 19 22 28 31
  20077706.212    -4251684.643 7  -3269465.552 9
  22904214.954   -11272522.271 5  -8581731.396 5
  22318321.165     5225705.901 5   4052050.359 5
  19758530.220   -10421850.101 7  -8037567.636 9
  20804920.415   -10986649.442 7  -8473220.577 8
  22656401.946     3478592.360 6   2705431.170 5
  23132023.470    -9374612.533 5  -7127606.290 5
  23240487.501    -5749027.571 5  -4279720.540 3
 94  1 22 22  4 59.9970000  0  8 29 27 14 18 19 22 28 31
  20074238.743    -4269905.290 7  -3283663.477 9
  22881826.767   -11390177.129 5  -8673410.450 5
  22330409.228     5289212.992 5   4101536.344 5
  19743856.587   -10498948.477 7  -8097644.284 9
  20788721.243   -11071793.658 7  -8539566.694 8
  22666180.353     3529984.259 6   2745476.747 5
  23114823.267    -9465008.931 5  -7198045.040 5
  23216495.470    -5875110.503 5  -4377966.940 3
 94  1 22 22  5 29.9970000  0  8 29 27 14 18 19 22 28 31
  20070851.329    -4287707.185 7  -3297535.097 9
  22859471.665   -11507658.303 5  -8764954.178 5
  22342529.790     5352907.575 5   4151168.416 5
  19729255.509   -10575667.568 7  -8157425.390 9
  20772566.251   -11156689.829 7  -8605719.532 8
  22676014.282     3581652.656 6   2785737.775 5
  23097697.946    -9555029.984 5  -7268191.316 5
  23192528.142    -6001042.640 5  -4476095.838 3
 94  1 22 22  5 59.9970000  0  8 29 27 14 18 19 22 28 31
  20067542.321    -4305095.158 7  -3311084.186 9
  22837145.196   -11624976.878 5  -8856371.225 4
  22354688.720     5416794.597 5   4200950.448 5
  19714734.626   -10652005.137 7  -8216909.197 9
  20756450.798   -11241358.478 7  -8671695.072 8
  22685897.493     3633590.336 6   2826208.644 5
  23080634.173    -9644668.158 5  -7338039.229 5
  23168598.220    -6126826.532 5  -4574109.231 4
 94  1 22 22  6 29.9970000  0  8 29 27 14 18 19 22 28 31
  20064310.946    -4322081.683 7  -3324320.459 9
  22814847.689   -11742148.232 5  -8947673.552 5
  22366878.337     5480874.006 5   4250882.379 5
  19700274.978   -10727966.206 7  -8276099.632 9
  20740387.064   -11325795.205 7  -8737489.891 8
  22695833.134     3685802.839 6   2866893.667 5
  23063652.017    -9733913.470 5  -7407581.023 5
  23144683.095    -6252480.659 5  -4672021.520 5
 94  1 22 22  6 59.9970000  0  8 29 27 14 18 19 22 28 31
  20061156.767    -4338649.886 7  -3337230.765 9
  22792574.798   -11859184.952 5  -9038870.937 5
  22379112.884     5545153.591 5   4300970.296 5
  19685898.032   -10803534.032 7  -8334983.639 9
  20724360.782   -11409993.501 7  -8803098.943 8
  22705819.329     3738282.101 6   2907786.547 5
  23046745.681    -9822772.423 5  -7476821.751 5
  23120794.282    -6378005.154 5  -4769832.762 4
 94  1 22 22  7 29.9970000  0  8 29 27 14 18 19 22 28 31
  20058083.071    -4354815.761 7  -3349827.564 9
  22770329.212   -11976093.248 5  -9129968.257 5
  22391379.517     5609626.343 5   4351208.737 5
  19671588.962   -10878723.547 7  -8393572.870 9
  20708379.689   -11493977.987 7  -8868541.367 8
  22715848.579     3790985.270 6   2948853.889 5
  23029901.962    -9911260.342 5  -7545773.360 5
  23096935.571    -6503398.581 5  -4867541.884 4
 94  1 22 22  7 59.9970000  0  8 29 27 14 18 19 22 28 31
  20055080.314    -4370583.087 7  -3362113.811 9
  22748107.470   -12092867.502 5  -9220961.154 5
  22403691.782     5674312.855 5   4401613.737 5
  19657353.235   -10953522.204 7  -8451857.523 9
  20692444.876   -11577725.845 7  -8933799.415 8
  22725921.938     3843908.373 6   2990092.609 5
  23013148.899    -9999343.625 5  -7614409.657 5
  23073098.728    -6628647.977 5  -4965138.748 3
 94  1 22 22  8 29.9970000  0  8 29 27 14 18 19 22 28 31
  20052155.868    -4385953.987 7  -3374091.154 9
  22725917.142   -12209495.053 5  -9311839.720 5
  22416035.743     5739206.200 5   4452179.908 5
  19643189.985   -11027948.306 7  -8509851.881 9
  20676557.923   -11661218.451 7  -8998858.576 8
  22736029.806     3897041.880 6   3031495.285 5
  22996458.853   -10087031.515 5  -7682737.860 5
  23049291.579    -6753760.660 5  -5062629.092 2
 94  1 22 22  8 59.9970000  0  8 29 27 14 18 19 22 28 31
  20049301.985    -4400955.901 7  -3385780.969 9
  22703745.657   -12325997.495 5  -9402620.792 5
  22428416.978     5804269.356 5   4502878.391 5
  19629093.884   -11102021.830 7  -8567571.504 9
  20660715.415   -11744477.653 7  -9063735.849 8
  22746177.688     3950360.872 5   3073042.474 5
  22979837.485   -10174346.468 5  -7750775.465 5
  23025506.173    -6878745.790 5  -5160020.028 4
 94  1 22 22  9 29.9970000  0  8 29 27 14 18 19 22 28 31
  20046515.399    -4415601.526 7  -3397193.168 9
  22681599.985   -12442374.929 5  -9493304.456 5
  22440835.212     5869493.058 5   4553701.993 5
  19615065.306   -11175749.975 7  -8625021.999 9
  20644915.899   -11827499.153 7  -9128427.903 8
  22756363.228     4003892.542 5   3114755.413 5
  22963303.798   -10261267.392 5  -7818506.018 5
  23001748.728    -7003594.477 5  -5257304.658 2
 94  1 22 22  9 59.9970000  0  8 29 27 14 18 19 22 28 31
  20043796.110    -4429889.909 7  -3408326.990 9
  22659478.782   -12558637.084 5  -9583898.296 5
  22453273.563     5934873.679 5   4604647.844 5
  19601100.509   -11249132.290 7  -8682203.017 9
  20629161.478   -11910281.104 7  -9192933.303 8
  22766598.251     4057670.835 5   3156660.511 5
  22946833.048   -10347789.543 5  -7885925.843 5
  22978016.212    -7128318.439 5  -5354492.070 3
 94  1 22 22 10 29.9970000  0  8 29 27 14 18 19 22 28 31
  20041146.978    -4443808.418 7  -3419172.595 9
  22637376.470   -12674784.623 5  -9674402.823 5
  22465739.220     6000378.927 5   4655690.828 5
  19587205.040   -11322166.320 7  -8739112.647 9
  20613451.439   -11992828.963 7  -9257256.291 8
  22776880.720     4111717.954 6   3198775.083 5
  22930448.751   -10433912.679 5  -7953034.763 5
  22954305.899    -7252912.654 5  -5451578.400 4
 94  1 22 22 10 59.9970000  0  8 29 27 14 18 19 22 28 31
  20038573.642    -4457334.502 7  -3429712.419 9
  22615294.689   -12790819.670 5  -9764819.702 5
  22478226.142     6066001.041 5   4706824.867 5
  19573377.774   -11394830.026 7  -8795733.701 9
  20597786.235   -12075144.141 7  -9321397.990 8
  22787219.970     4166041.190 6   3241104.825 5
  22914140.759   -10519620.574 5  -8019820.101 5
  22930625.079    -7377363.230 5  -5548552.817 4
 94  1 22 22 11 29.9970000  0  8 29 27 14 18 19 22 28 31
  20036076.337    -4470454.065 7  -3439935.472 9
  22593234.954   -12906737.812 5  -9855145.496 4
  22490740.985     6131749.463 5   4758057.329 4
  19559620.603   -11467115.958 7  -8852060.396 9
  20582169.532   -12157228.048 7  -9385359.446 8
  22797609.204     4220634.770 6   3283645.209 5
  22897913.188   -10604904.781 5  -8086275.281 5
  22906968.298    -7501673.326 5  -5645417.749 4
 94  1 22 22 11 59.9970000  0  8 29 27 14 18 19 22 28 31
  20033662.032    -4483144.816 7  -3449824.381 9
  22571203.274   -13022525.830 5  -9945369.881 5
  22503276.813     6197629.560 5   4809392.402 5
  19545941.587   -11539009.108 7  -8908081.030 9
  20566591.321   -12239073.122 7  -9449134.820 8
  22808045.313     4275467.381 5   3326371.858 5
  22881760.751   -10689765.533 5  -8152400.506 5
  22883341.720    -7625836.019 5  -5742167.848 4
 94  1 22 22 12 29.9970000  0  8 29 27 14 18 19 22 28 31
  20031329.392    -4495398.540 7  -3459372.742 9
  22549196.540   -13138160.190 5 -10035474.509 5
  22515834.946     6263643.969 5   4860832.132 5
  19532335.165   -11610496.554 7  -8963785.521 9
  20551069.196   -12320665.064 7  -9512712.945 8
  22818518.517     4330517.418 5   3369267.930 5
  22865695.235   -10774189.910 5  -8218185.695 5
  22859746.767    -7749827.303 5  -5838784.347 4
 94  1 22 22 12 59.9970000  0  8 29 27 14 18 19 22 28 31
  20029074.462    -4507246.051 7  -3468604.590 9
  22527219.923   -13253648.029 5 -10125464.968 5
  22528424.259     6329805.186 5   4912386.256 5
  19518809.853   -11681583.422 7  -9019177.873 9
  20535581.735   -12402024.700 7  -9576110.048 8
  22829029.899     4385753.671 5   3412309.090 5
  22849708.673   -10858199.615 5  -8283647.768 5
  22836184.759    -7873646.955 5  -5935267.135 3
 94  1 22 22 13 29.9970000  0  8 29 27 14 18 19 22 28 31
  20026899.345    -4518688.522 7  -3477520.816 9
  22505272.251   -13368975.341 5 -10215330.347 5
  22541050.938     6396135.463 5   4964072.117 5
  19505360.688   -11752263.505 7  -9074253.253 9
  20520146.548   -12483145.519 7  -9639321.062 8
  22839577.001     4441173.967 5   3455493.666 5
  22833798.415   -10941788.981 5  -8348782.299 5
  22812659.501    -7997272.237 5  -6031598.456 4
 94  1 22 22 13 59.9970000  0  8 29 27 14 18 19 22 28 31
  20024791.610    -4529755.681 7  -3486144.590 9
  22483351.634   -13484159.462 5 -10305084.167 5
  22553697.556     6462606.088 5   5015867.330 5
  19491983.642   -11822556.520 7  -9129027.026 9
  20504751.399   -12564049.929 7  -9702363.443 8
  22850155.110     4496760.660 5   3498807.894 5
  22817969.313   -11024979.610 5  -8413606.139 5
  22789168.978    -8120711.676 5  -6127784.963 3
 94  1 22 22 14 29.9970000  0  8 29 27 14 18 19 22 28 31
  20022755.767    -4540463.001 7  -3494487.973 9
  22461465.634   -13599196.997 5 -10394723.759 5
  22566374.790     6529218.497 5   5067773.035 5
  19478681.985   -11892455.435 7  -9183493.699 9
  20489396.837   -12644735.941 7  -9765235.651 8
  22860768.064     4552543.233 6   3542274.762 5
  22802221.064   -11107763.453 5  -8478113.001 5
  22765717.860    -8243950.335 5  -6223815.034 4
 94  1 22 22 14 59.9970000  0  8 29 27 14 18 19 22 28 31
  20020788.954    -4550791.085 7  -3502535.855 9
  22439598.978   -13714098.077 5 -10484257.000 5
  22579076.353     6595967.804 5   5119785.406 5
  19465457.392   -11961962.674 7  -9237655.175 8
  20474082.517   -12725214.131 7  -9827945.900 8
  22871424.032     4608529.593 6   3585900.444 5
  22786540.431   -11190137.142 5  -8542300.281 5
  22742303.501    -8366991.893 5  -6319691.505 4
 94  1 22 22 15 29.9970000  0  8 29 27 14 18 19 22 28 31
  20018895.751    -4560735.564 7  -3510284.812 9
  22417758.845   -13828863.796 5 -10573684.770 5
  22591801.704     6662837.814 5   5171891.834 5
  19452300.399   -12031092.821 7  -9291522.810 8
  20458807.876   -12805489.745 7  -9890498.319 8
  22882115.415     4664721.305 6   3629686.129 5
  22770946.470   -11272087.664 5  -8606157.817 5
  22718926.235    -8489849.527 5  -6415424.639 4
 94  1 22 22 15 59.9970000  0  8 29 27 14 18 19 22 28 31
  20017077.431    -4570300.815 7  -3517738.278 9
  22395946.907   -13943493.574 5 -10663006.651 5
  22604545.915     6729816.025 5   5224082.564 5
  19439213.181   -12099851.902 7  -9345101.310 8
  20443573.493   -12885557.806 7  -9952888.992 8
  22892850.978     4721130.804 5   3673641.532 5
  22755435.298   -11353605.773 5  -8669678.404 5
  22695578.212    -8612529.974 5  -6511019.716 4
 94  1 22 22 16 29.9970000  0  8 29 27 14 18 19 22 28 31
  20015332.314    -4579466.561 7  -3524880.438 9
  22374159.853   -14057971.321 5 -10752210.041 5
  22617316.165     6796907.279 5   5276361.382 5
  19426207.962   -12168224.611 7  -9398378.738 8
  20428376.321   -12965403.705 7 -10015106.554 8
  22903627.470     4777761.558 5   3717769.328 5
  22740008.751   -11434673.928 5  -8732848.395 5
  22672270.478    -8735020.209 5  -6606466.578 4
 94  1 22 22 16 59.9970000  0  8 29 27 14 18 19 22 28 31
  20013667.634    -4588216.308 7  -3531698.445 9
  22352405.446   -14172302.607 5 -10841299.292 6
  22630103.681     6864115.077 5   5328731.026 5
  19413265.415   -12236211.394 7  -9451355.443 8
  20413227.282   -13045022.335 7 -10077147.029 8
  22914441.009     4834588.123 5   3762049.700 5
  22724669.735   -11515287.636 5  -8795664.262 5
  22648997.712    -8857332.058 5  -6701774.423 4
 94  1 22 22 17 29.9970000  0  8 29 27 14 18 19 22 28 31
  20012075.938    -4596578.040 7  -3538214.099 9
  22330674.181   -14286505.055 5 -10930288.137 5
  22642908.790     6931423.140 5   5381178.780 5
  19400403.860   -12303815.344 7  -9504033.839 8
  20398118.899   -13124410.789 7 -10139008.133 8
  22925287.446     4891594.702 5   3806470.343 5
  22709411.345   -11595454.395 5  -8858131.870 5
  22625753.704    -8979468.722 5  -6796945.772 5
 94  1 22 22 17 59.9970000  0  8 29 27 14 18 19 22 28 31
  20010564.618    -4604520.312 7  -3544402.903 9
  22308961.532   -14400585.383 5 -11019181.850 5
  22655736.298     6998830.298 5   5433703.762 4
  19387618.657   -12371004.744 7  -9556389.216 8
  20383056.407   -13203554.104 7 -10200678.227 8
  22936169.743     4948781.181 5   3851031.161 5
  22694245.564   -11675169.162 5  -8920247.262 5
  22602547.845    -9101406.455 5  -6891962.099 4
 94  1 22 22 18 29.9970000  0  8 29 27 14 18 19 22 28 31
  20009133.931    -4612036.686 7  -3550259.839 9
  22287275.681   -14514559.733 5 -11107992.995 5
  22668585.188     7066338.021 5   5486307.110 5
  19374913.259   -12437767.276 7  -9608411.962 8
  20368042.321   -13282461.981 7 -10262164.871 8
  22947085.306     5006137.599 5   3895724.404 5
  22679164.524   -11754432.567 5  -8982010.943 5
  22579379.415    -9223146.811 5  -6986824.633 3
 94  1 22 22 18 59.9970000  0  8 29 27 14 18 19 22 28 31
  20007783.884    -4619133.663 7  -3555789.959 9
  22265607.829   -14628432.240 5 -11196724.747 5
  22681451.915     7133951.297 5   5538992.701 5
  19362287.204   -12504110.398 7  -9660107.896 8
  20353070.446   -13361131.142 7
  22958033.048     5063671.100 5   3940555.629 5
  22664167.774   -11833245.192 5
  22556255.485    -9344683.542 5  -7081528.504 5
 94  1 22 22 19 29.9960000  0  8 29 27 14 18 19 22 28 31
  20006510.926    -4625822.888 7  -3561002.356 9
  22243959.731   -14742187.730 5 -11285365.322 6
  22694328.199     7201644.486 5   5591740.547 5
  19349743.535   -12570040.997 7  -9711482.385 8
  20338143.801   -13439570.302 7 -10384586.894 8
  22969015.996     5121386.904 5   3985528.909 5
  22649255.348   -11911600.742 5  -9104479.638 6
  22533167.613    -9466002.259 5  -7176062.506 4
 94  1 22 22 19 59.9960000  0  8 29 27 14 18 19 22 28 31
  20005313.449    -4632118.078 7  -3565907.714 9
  22222336.551   -14855815.908 5 -11373906.725 5
  22707229.223     7269425.526 5   5644556.868 4
  19337271.098   -12635577.061 7  -9762549.443 8
  20323260.191   -13517793.772 7 -10445540.231 8
  22980032.356     5179274.074 5   4030635.720 5
  22634427.215   -11989511.253 5  -9165189.109 6
  22510123.395    -9587120.005 5  -7270439.895 4
 94  1 22 22 20 29.9960000  0  8 29 27 14 18 19 22 28 31
  20004186.488    -4638034.889 7  -3570518.231 9
  22200745.598   -14969284.937 5 -11462324.096 5
  22720146.418     7337312.837 5   5697455.995 5
  19324871.121   -12700723.056 7  -9813312.549 8
  20308421.309   -13595786.743 7 -10506313.948 8
  22991081.613     5237331.479 5   4075875.173 5
  22619687.270   -12066966.540 5  -9225543.860 5
  22487112.941    -9708038.156 5  -7364661.747 4
 94  1 22 22 20 59.9960000  0  8 29 27 14 18 19 22 28 31
  20003133.340    -4643572.887 7  -3574833.571 9
  22179185.270   -15082580.342 5 -11550606.168 5
  22733082.723     7405296.117 5   5750429.890 4
  19312550.738   -12765485.260 7  -9863776.600 8
  20293618.395   -13673548.999 7 -10566907.909 8
  23002161.129     5295542.449 5   4121234.301 5
  22605035.520   -12143972.091 5  -9285548.172 5
  22464139.277    -9828755.022 5  -7458726.753 4
 94  1 22 22 21 29.9960000  0  8 29 27 14 18 19 22 28 31
  20002151.629    -4648733.149 7  -3578854.570 9
  22157656.395   -15195716.570 5 -11638764.244 5
  22746038.176     7473370.676 5   5803474.935 4
  19300297.731   -12829863.284 7  -9913941.286 8
  20278865.965   -13751099.135 7 -10627336.571 8
  23013262.051     5353892.382 5   4166701.698 5
  22590465.980   -12220532.103 5  -9345205.294 5
  22441203.941    -9949281.047 5  -7552643.042 4
 94  1 22 22 21 59.9960000  0  8 29 27 14 18 19 22 28 31
  20001240.863    -4653518.944 7  -3582583.779 9
  22136153.355   -15308715.946 5 -11726815.656 5
  22759014.590     7541551.712 5   5856602.938 5
  19288124.402   -12893848.339 7  -9963799.765 8
  20264147.449   -13828437.627 7 -10687600.326 8
  23024394.684     5412391.073 5   4212285.013 5
  22575977.660   -12296660.691 5  -9404526.253 5
  22418303.481   -10069617.529 5  -7646411.659 5
 94  1 22 22 22 29.9960000  0  8 29 27 14 18 19 22 28 31
  20000406.543    -4657899.741 7  -3585997.404 9
  22114672.160   -15421588.463 5 -11814768.224 6
  22772005.887     7609832.623 4   5909808.756 5
  19276027.699   -12957421.787 7 -10013337.513 8
  20249469.270   -13905564.171 7 -10747698.926 8
  23035559.988     5471067.665 5   4258006.945 5
  22561576.543   -12372336.267 5  -9463494.195 6
  22395446.676   -10189742.975 5  -7740015.825 4
 94  1 22 22 22 59.9960000  0  8 29 27 14 18 19 22 28 31
  19999647.707    -4661879.182 7  -3589098.292 9
  22093213.363   -15534355.792 5 -11902638.828 6
  22785017.832     7678187.670 5   5963072.327 4
  19264008.105   -13020585.560 7 -10062556.035 8
  20234828.293   -13982500.458 7 -10807649.277 8
  23046761.059     5529921.963 5   4303867.348 5
  22547255.973   -12447565.524 5  -9522114.354 5
  22372629.902   -10309642.422 5  -7833443.897 5
 94  1 22 22 23 29.9960000  0  8 29 27 14 18 19 22 28 31
  19998971.871    -4665452.953 7  -3591883.074 9
  22071775.160   -15647017.606 5 -11990427.225 6
  22798045.129     7746631.143 5   6016404.828 4
  19252067.871   -13083328.295 7 -10111446.476 8
  20220226.356   -14059231.134 7 -10867439.415 8
  23058002.027     5588975.858 5   4349883.289 5
  22533032.324   -12522334.994 5  -9580376.219 5
  22349860.832   -10429300.229 5  -7926683.658 5
 94  1 22 22 23 59.9960000  0  8 29 27 14 18 19 22 28 31
  19998364.387    -4668629.882 7  -3594358.637 9
  22050354.965   -15759575.964 5 -12078135.027 6
  22811079.215     7815149.057 4   6069795.316 4
  19240206.379   -13145649.902 7 -10160008.770 8
  20205666.027   -14135756.560 7 -10927069.619 8
  23069270.965     5648210.071 5   4396039.726 5
  22518890.606   -12596652.625 5  -9638286.019 5
  22327134.176   -10548716.574 5  -8019735.300 4
 94  1 22 22 24 29.9960000  0  8 29 27 14 18 19 22 28 31
  19997837.543    -4671402.638 7  -3596519.244 9
  22028958.441   -15872018.872 5 -12165752.818 6
  22824131.129     7883728.507 5   6123233.762 4
  19228426.168   -13207548.425 7 -10208241.375 8
  20191143.293   -14212082.825 7 -10986544.610 8
  23080570.270     5707591.482 5   4442310.893 5
  22504842.137   -12670508.654 5  -9695836.091 5
  22304458.262   -10667884.685 5  -8112593.487 5
 94  1 22 22 24 59.9960000  0  8 29 27 14 18 19 22 28 31
  19997386.488    -4673774.729 7  -3598367.653 9
  22007586.590   -15984327.399 5 -12253265.910 6
  22837191.004     7952385.081 5   6176732.314 3
  19216731.199   -13269020.866 7 -10256141.974 8
  20176658.012   -14288191.497 7 -11045850.080 8
  23091896.660     5767116.036 5   4488693.577 5
  22490873.590   -12743893.336 5  -9753018.896 5
  22281830.824   -10786791.060 5  -8205247.733 5
 94  1 22 22 25 29.9960000  0  8 29 27 14 18 19 22 28 31
  19997005.988    -4675760.181 7  -3599914.785 9
  21986240.668   -16096508.513 5 -12340679.745 6
  22850270.434     8021104.161 5   6230279.559 3
  19205108.926   -13330084.694 7 -10303724.166 8
  20162215.926   -14364090.058 7 -11104991.801 8
  23103245.262     5826758.758 5   4535168.348 5
  22476990.012   -12816821.958 5  -9809846.327 5
  22259245.527   -10905454.014 5  -8297712.293 5
 94  1 22 22 25 59.9960000  0  8 29 27 14 18 19 22 28 31
  19996705.434    -4677347.304 7  -3601151.532 9
  21964917.566   -16208546.387 5 -12427981.951 6
  22863360.816     8089878.761 5   6283870.054 4
  19193567.254   -13390730.501 7 -10350980.633 8
  20147815.660   -14439772.653 7 -11163965.242 9
  23114619.020     5886517.156 5   4581733.251 5
  22463207.246   -12889282.622 5  -9866309.116 6
  22236718.934   -11023840.708 5  -8389961.594 5
 94  1 22 22 26 29.9960000  0  8 29 27 14 18 19 22 28 31
  19996480.816    -4678540.184 7  -3602081.078 9
  21943625.520   -16320446.400 5 -12515176.718 6
  22876451.426     8158687.603 4   6337487.243 3
  19182105.355   -13450971.264 7 -10397921.480 8
  20133453.582   -14515241.770 7 -11222772.347 8
  23126010.035     5946398.131 5   4628393.669 5
  22449506.113   -12961280.636 5  -9922411.392 6
  22214247.395   -11141955.079 5  -8481998.700 5
 94  1 22 22 26 59.9960000  0  8 29 27 14 18 19 22 28 31
  19996327.981    -4679343.593 7  -3602707.140 9
  21922357.840   -16432211.956 6 -12602266.730 6
  22889549.895     8227530.789 4   6391131.177 4
  19170719.176   -13510804.308 7 -10444544.625 8
  20119137.699   -14590480.148 7 -11281399.645 9
  23137434.715     6006413.191 5   4675158.567 4
  22435890.184   -13032820.057 5  -9978156.337 6
  22191820.285   -11259794.417 5  -8573821.479 5
 94  1 22 22 27 29.9960000  0  8 29 27 14 18 19 22 28 31
  19996243.738    -4679769.224 7
  21901112.254   -16543861.256 6 -12689266.132 6
  22902653.332     8296389.240 4   6444787.020 4
  19159408.816   -13570228.991 7 -10490849.564 8
  20104862.168   -14665497.791 7 -11339854.952 9
  23148877.457     6066540.073 5   4722010.608 4
  22422364.027   -13103917.564 5 -10033556.936 6
  22169447.043   -11377368.572 5  -8665437.650 5
 94  1 22 22 27 59.9960000  0  8 29 27 14 18 19 22 28 31
  19996237.356    -4679806.077 7
  21879887.980   -16655390.100 6 -12776171.685 6
  22915764.730     8365270.224 4   6498460.420 2
  19148185.441   -13629230.706 7 -10536824.915 8
  20090625.832   -14740292.478 7 -11398136.521 8
  23160343.480     6126794.075 5   4768961.710 3
  22408917.137   -13174555.247 5 -10088599.240 6
  22147122.402   -11494679.673 5  -8756848.835 5
 94  1 22 22 28 29.9960000  0  8 29 27 14 18 19 22 28 31
  19996304.418    -4679453.912 7
  21858684.520   -16766807.582 6 -12862990.465 6
  22928879.113     8434188.477 5   6552162.852 4
  19137037.707   -13687809.476 7 -10582470.706 8
  20076435.129   -14814867.742 7 -11456247.114 9
  23171828.637     6187177.325 5   4816013.524 4
  22395569.543   -13244729.158 5 -10143280.165 6
  22124845.277   -11611755.846 5  -8848076.977 5
 94  1 22 22 28 59.9960000  0  8 29 27 14 18 19 22 28 31
  19996444.949    -4678723.063 7  -3602223.686 8
  21837504.785   -16878117.110 6 -12949725.121 6
  22942003.520     8503141.737 5   6605892.562 4
  19125968.934   -13745971.835 7 -10627792.020 8
  20062285.598   -14889230.815 7 -11514192.368 9
  23183344.090     6247662.256 5   4863144.573 5
  22382296.973   -13314434.491 5 -10197595.975 6
  22102609.395   -11728596.527 5  -8939121.632 5
 94  1 22 22 29 29.9960000  0  8 29 27 14 18 19 22 28 31
  19996660.027    -4677594.578 7  -3601344.365 8
  21816345.887   -16989298.208 6 -13036359.718 6
  22955130.715     8572142.149 4   6659659.028 3
  19114980.418   -13803705.721 7 -10672779.461 8
  20048177.332   -14963379.704 7 -11571970.713 9
  23194871.231     6308254.134 5   4910358.948 4
  22369131.340   -13383651.686 5 -10251531.430 5
  22080423.418   -11845193.959 5  -9029976.725 5
 94  1 22 22 29 59.9960000  0  8 29 27 14 18 19 22 28 31
  19996954.996    -4676044.845 7  -3600136.790 8
  21795219.277   -17100327.977 6 -13122876.368 6
  22968277.434     8641209.737 4   6713477.812 2
  19104083.027   -13860991.796 7 -10717417.947 8
  20034109.363   -15037294.227 7 -11629566.433 9
  23206426.481     6368979.590 5   4957677.412 5
  22356057.152   -13452354.131 5 -10305065.793 5
  22058285.910   -11961538.208 5  -9120634.544 5
 94  1 22 22 30 29.9960000  0  8 29 27 14 18 19 22 28 31
  19997324.574    -4674099.197 7  -3598620.709 8
  21774119.715   -17211215.258 6 -13209282.006 6
  22981423.613     8710317.117 4   6767327.622 4
  19093263.332   -13917848.409 7 -10761721.791 8
  20020086.316   -15110981.747 7 -11686985.277 9
  23218003.996     6429816.416 5   5005082.653 5
  22343073.723   -13520555.085 5 -10358209.397 5
  22036190.660   -12077631.841 5  -9211097.099 5
 94  1 22 22 30 59.9960000  0  8 29 27 14 18 19 22 28 31
  19997769.754    -4671758.345 7  -3596796.681 8
  21753046.863   -17321938.427 6 -13295559.778 6
  22994578.926     8779458.711 4   6821204.091 2
  19082526.887   -13974265.489 7 -10805683.143 8
  20006108.574   -15184434.314 7 -11744221.038 9
  23229605.473     6490775.020 5   5052582.786 4
  22330195.043   -13588256.227 5 -10410963.538 6
  22014152.301   -12193454.901 5  -9301348.832 5
 94  1 22 22 31 29.9960000  0  8 29 27 14 18 19 22 28 31
  19998288.496    -4669026.655 7  -3594668.104 9
  21732008.348   -17432506.240 6 -13381716.465 6
  23007746.801     8848632.840 4   6875105.895 2
  19071874.645   -14030236.844 7 -10849297.187 8
  19992175.559   -15257669.492 7 -11801287.391 9
  23241233.152     6551875.023 5   5100193.094 5
  22317404.785   -13655466.423 5 -10463335.130 6
  21992158.738   -12309015.318 5  -9391395.897 5
 94  1 22 22 31 59.9960000  0  8 29 27 14 18 19 22 28 31
  19998886.098    -4665901.145 7  -3592232.652 8
  21710995.707   -17542926.501 6 -13467758.195 6
  23020915.293     8917835.138 4   6929029.660 2
  19061307.691   -14085768.419 7 -10892568.534 8
  19978277.160   -15330696.670 7 -11858191.690 9
  23252888.551     6613121.971 5   5147917.909 5
  22304709.129   -13722181.891 5 -10515321.206 6
  21970220.441   -12424296.954 5  -9481225.737 5
 94  1 22 22 32 29.9960000  0  8 29 27 14 18 19 22 28 31
  19999555.707    -4662384.981 7  -3589492.796 8
  21690009.355   -17653207.198 5 -13553691.180 6
  23034088.379     8987060.116 3   6982971.096 2
  19050822.254   -14140875.778 7 -10935509.332 8
  19964417.848   -15403524.489 7 -11914940.632 9
  23264564.340     6674500.474 5   5195745.227 5
  22292107.582   -13788420.018 5 -10566935.336 6
  21948338.926   -12539287.359 5  -9570828.640 5
 94  1 22 22 32 59.9960000  0  8 29 27 14 18 19 22 28 31
  20000299.238    -4658462.770 7  -3586436.547 8
  21669049.715   -17763357.252 6 -13639522.344 6
  23047271.113     9056329.338 3   7036946.999 3
  19040418.012   -14195546.607 7 -10978109.971 8
  19950594.246   -15476153.395 7 -11971534.561 9
  23276272.082     6736008.848 5   5243673.757 5
  22279595.223   -13854179.022 5 -10618176.109 6
  21926515.231   -12653971.829 5  -9660193.163 5
 94  1 22 22 33 29.9960000  0  8 29 27 14 18 19 22 28 31
  20001123.996    -4654134.379 7  -3583063.791 9
  21648106.535   -17873413.834 6 -13725280.690 6
  23060457.582     9125620.244 3   7090939.793 3
  19030092.527   -14249802.883 7 -11020387.592 8
  19936812.715   -15548598.096 7 -12027984.965 9
  23287996.762     6797612.323 5   5291676.407 4
  22267170.457   -13919460.913 5 -10669045.091 5
  21904750.559   -12768363.654 5  -9749329.638 5
 94  1 22 22 33 59.9960000  0  8 29 27 14 18 19 22 28 31
  20002023.199    -4649397.561 7  -3579372.781 9
  21627184.027   -17983363.063 6 -13810955.365 6
  23073646.051     9194941.125 3   7144955.960 3
  19019847.051   -14303643.170 7 -11062341.059 8
  19923067.707   -15620829.284 7 -12084268.997 9
  23299732.301     6859290.143 5   5339736.991 4
  22254836.816   -13984252.492 5 -10719532.019 6
  21883038.363   -12882451.928 5  -9838229.578 5
 94  1 22 22 34 29.9960000  0  8 29 27 14 18 19 22 28 31
  20003003.309    -4644266.856 7  -3575374.842 8
  21606282.871   -18093201.568 6 -13896543.778 6
  23086842.129     9264283.649 3   7198988.988 2
  19009684.801   -14357048.901 7 -11103955.915 8
  19909363.926   -15692840.990 7 -12140381.995 9
  23311482.410     6921032.314 5   5387847.708 5
  22242600.309   -14048554.365 5 -10769637.347 5
  21861385.387   -12996244.438 5  -9926899.064 5
 94  1 22 22 34 59.9960000  0  8 29 27 14 18 19 22 28 31
  20004054.074    -4638740.443 7  -3571068.568 8
  21585399.285   -18202927.865 6 -13982044.747 6
  23100037.645     9333633.526 3   7253027.740 2
  18999609.332   -14410008.802 7 -11145223.371 8
  19895695.723   -15764645.698 7 -12196333.699 9
  23323245.488     6982839.472 5   5436009.083 4
  22230461.855   -14112353.612 5 -10819350.998 6
  21839785.715   -13109747.800 5 -10015343.212 5
 94  1 22 22 35 29.9960000  0  8 29 27 14 18 19 22 28 31
  20005177.527    -4632826.773 7  -3566460.540 8
  21564544.559   -18312533.811 6 -14067451.949 6
  23113230.395     9402977.140 3   7307061.643 2
  18989613.551   -14462523.069 7 -11186143.580 8
  19882074.691   -15836249.763 7 -12252129.073 9
  23335016.106     7044712.050 5   5484221.428 3
  22218416.012   -14175654.621 5 -10868676.425 5
  21818242.801   -13222971.104 5 -10103569.151 5
 94  1 22 22 35 59.9960000  0  8 29 27 14 18 19 22 28 31
  20006375.504    -4626539.603 7  -3561561.465 8
  21543711.254   -18422004.759 6 -14152753.943 6
  23126430.582     9472321.042 3   7361095.728 1
  18979709.074   -14514576.183 7 -11226704.446 8
  19868482.426   -15907660.173 7 -12307773.535 9
  23346805.840     7106671.155 5   5532501.206 3
  22206465.559   -14238461.753 5 -10917616.990 5
  21796754.762   -13335897.165 5 -10191563.444 5
 94  1 22 22 36 29.9960000  0  8 29 27 14 18 19 22 28 31
  20007645.848    -4619863.272 7  -3556359.152 8
  21522904.910   -18531343.431 6 -14237952.842 6
  23139624.957     9541659.412 3   7415125.542 2
  18969892.754   -14566156.890 7 -11266897.204 8
  19854930.934   -15978890.134 7 -12363277.400 9
  23358621.457     7168740.991 5   5580867.261 4
  22194601.910   -14300776.249 5 -10966173.688 6
  21775322.981   -13448516.496 5 -10279318.718 5
 94  1 22 22 36 59.9960000  0  8 29 27 14 18 19 22 28 31
  20008992.981    -4612784.355 7  -3550843.136 8
  21502123.668   -18640544.228 6 -14323044.343 6
  23152819.902     9611002.317 3   7469158.847 2
  18960163.293   -14617276.907 7 -11306730.987 8
  19841414.957   -16049922.379 7 -12418627.195 9
  23370452.949     7230936.686 5   5629331.382 2
  22182843.582   -14362582.317 5 -11014334.219 5
  21753953.707   -13560804.236 5 -10366815.612 5
 94  1 22 22 37 29.9960000  0  8 29 27 14 18 19 22 28 31
  20010413.629    -4605317.206 7  -3545024.600 8
  21481372.566   -18749607.173 6 -14408028.408 6
  23166019.832     9680352.520 3   7523197.847 1
  18950523.496   -14667940.414 7 -11346209.040 8
  19827935.191   -16120743.618 7 -12473812.574 9
  23382311.098     7293257.408 5   5677892.908 4
  22171183.215   -14423879.746 5 -11062098.414 6
  21732649.535   -13672753.550 5 -10454048.798 5
 94  1 22 22 37 59.9950000  0  8 29 27 14 18 19 22 28 31
  20011905.319    -4597479.406 7  -3538917.244 8
  21460641.265   -18858548.409 6 -14492917.655 6
  23179212.265     9749679.440 3   7577218.729 2
  18940966.655   -14718168.927 7 -11385348.134 8
  19814492.999   -16191370.646 7 -12528846.623 9
  23394190.952     7355669.668 5   5726525.776 4
  22159616.023   -14484676.561 5 -11109472.515 6
  21711406.608   -13784375.720 5 -10541027.040 5
 94  1 22 22 38 29.9950000  0  8 29 27 14 18 19 22 28 31
  20013470.069    -4589250.052 7  -3532504.779 8
  21439935.319   -18967359.149 6 -14577705.191 6
  23192399.827     9819007.117 3   7631240.160 1
  18931489.733   -14767962.695 7 -11424148.478 8
  19801098.163   -16261781.815 7 -12583712.463 9
  23406082.874     7418170.262 4   5775227.472 4
  22148141.069   -14544958.205 5 -11156445.191 5
  21690229.757   -13895670.144 5 -10627749.888 5
 94  1 22 22 38 59.9950000  0  8 29 27 14 18 19 22 28 31
  20015112.421    -4580623.765 7  -3525783.016 8
  21419253.937   -19076038.550 6 -14662390.399 6
  23205591.796     9888331.592 3   7685259.163 1
  18922098.671   -14817329.271 7 -11462615.937 8
  19787736.577   -16331981.931 7 -12638413.849 9
  23417990.210     7480748.146 4   5823989.404 4
  22136766.366   -14604717.140 5 -11203010.573 5
  21669115.515   -14006629.781 6 -10714211.872 5
 94  1 22 22 39 29.9950000  0  8 29 27 14 18 19 22 28 31
  20016832.343    -4571589.338 7  -3518743.220 8
  21398596.335   -19184587.481 6 -14746973.952 6
  23218790.038     9957654.614 3   7739277.002 1
  18912784.921   -14866252.416 7 -11500737.866 8
  19774421.640   -16401978.739 7 -12692956.818 9
  23429913.624     7543391.393 4   5872802.248 5
  22125492.710   -14663964.660 5 -11249177.449 6
  21648064.499   -14117263.985 6 -10800420.282 5
 94  1 22 22 39 59.9950000  0  8 29 27 14 18 19 22 28 31
  20018630.327    -4562141.715 7  -3511381.446 8
  21377965.093   -19293009.297 6 -14831458.437 6
  23231976.640    10026969.335 3   7793288.356 2
  18903557.929   -14914737.968 7 -11538518.810 8
  19761136.491   -16471779.534 7 -12747347.039 9
  23441840.077     7606086.578 4   5921655.586 4
  22114316.991   -14722700.040 5 -11294945.271 5
  21627069.866   -14227574.009 6 -10886376.082 5
 94  1 22 22 40 29.9950000  0  8 29 27 14 18 19 22 28 31
  20020507.265    -4552271.489 7  -3503690.374 8
  21357355.218   -19401314.875 6 -14915852.356 6
  23245161.429    10096259.297 3   7847280.469 1
  18894415.257   -14962789.487 7 -11575961.550 8
  19747893.874   -16541376.633 7 -12801578.545 9
  23453783.538     7668844.006 4   5970557.413 4
  22103241.218   -14780918.954 5 -11340310.657 5
  21606143.085   -14337548.594 6 -10972070.506 5
 94  1 22 22 40 59.9950000  0  8 29 27 14 18 19 22 28 31
  20022466.679    -4541978.899 7  -3495670.178 8
  21336765.616   -19509512.106 6 -15000161.846 6
  23258337.515    10165499.714 3   7901233.941 1
  18885356.858   -15010387.371 7 -11613050.807 8
  19734691.343   -16610762.646 7 -12855645.557 9
  23465740.655     7731664.266 4   6019508.235 4
  22092259.874   -14838616.531 5 -11385269.793 5
  21585277.991   -14447195.999 6 -11057509.975 5
 94  1 22 22 41 29.9950000  0  8 29 27 14 18 19 22 28 31
  20024498.858    -4531295.113 7  -3487345.162 8
  21316197.968   -19617595.839 6 -15084382.902 6
  23271503.671    10234679.729 3   7955140.328 1
  18876389.530   -15057522.987 7 -11649779.872 8
  19721526.929   -16679922.560 7 -12909536.399 9
  23477703.077     7794522.148 4   6068488.351 3
  22081372.866   -14895807.505 5 -11429834.189 6
  21564477.460   -14556525.872 6 -11142702.040 5
 94  1 22 22 41 59.9950000  0  8 29 27 14 18 19 22 28 31
  20026607.226    -4520227.187 7  -3478720.804 8
  21295654.288   -19725558.395 6 -15168509.525 6
  23284653.343    10303788.100 3   8008990.926 2
  18867506.413   -15104197.583 7 -11686149.684 8
  19708413.913   -16748841.814 7 -12963239.709 9
  23489672.858     7857424.182 4   6117502.865 2
  22070591.655   -14952480.870 5 -11473995.253 6
  21543730.444   -14665525.804 6 -11227637.004 5
 94  1 22 22 42 29.9950000  0  8 29 27 14 18 19 22 28 31
  20028785.773    -4508769.878 7  -3469793.033 8
  21275132.851   -19833392.929 6 -15252536.397 6
  23297790.374    10372821.316 3   8062782.960 1
  18858716.093   -15150398.049 7 -11722150.044 8
  19695344.124   -16817516.335 7 -13016752.316 9
  23501648.265     7920376.371 4   6166556.496 3
  22059900.741   -15008647.427 5 -11517761.387 6
  21523052.718   -14774187.799 6 -11312308.654 5
 94  1 22 22 42 59.9950000  0  8 29 27 14 18 19 22 28 31
  20031039.085    -4496935.775 7  -3460571.657 8
  21254641.851   -19941075.912 6 -15336445.177 6
  23310921.226    10441804.672 3   8116536.143 1
  18850015.773   -15196107.180 7 -11757767.551 8
  19682323.351   -16885948.681 7 -13070076.212 9
  23513641.351     7983382.650 4   6215652.275 2
  22049312.405   -15064315.736 5 -11561139.278 6
  21502435.382   -14882514.688 6 -11396719.170 5
 94  1 22 22 43 29.9950000  0  8 29 27 14 18 19 22 28 31
  20033361.319    -4484720.939 7  -3451053.605 8
  21234182.819   -20048587.620 6 -15420220.515 6
  23324044.718    10510750.507 3   8170260.107 2
  18841410.233   -15241330.371 7 -11793006.406 8
  19669347.077   -16954150.827 7 -13123220.745 9
  23525644.468     8046460.219 4   6264803.594 2
  22038813.273   -15119469.744 5 -11604116.414 5
  21481893.913   -14990477.797 6 -11480846.243 6
 94  1 22 22 43 59.9950000  0  8 29 27 14 18 19 22 28 31
  20035761.437    -4472109.339 7  -3441226.388 8
  21213756.233   -20155932.905 6
  23337147.648    10579651.479 3   8223949.089 2
  18832894.874   -15286078.383 7 -11827874.988 8
  19656405.905   -17022141.269 7 -13176200.300 9
  23537661.062     8109622.444 4   6314020.883 3
  22028425.171   -15174087.127 6 -11646675.393 5
  21461425.937   -15098063.495 6
 94  1 22 22 44 29.9950000  0  8 29 27 14 18 19 22 28 31
  20038236.687    -4459107.599 7  -3431095.167 8
  21193358.366   -20263119.614 6
  23350258.405    10648521.712 2   8277614.124 1
  18824474.116   -15330346.532 7 -11862369.662 8
  19643501.890   -17089939.987 7 -13229030.463 9
  23549700.991     8172875.072 4   6363308.633 2
  22018130.280   -15228166.252 5 -11688814.943 5
  21441021.530   -15205275.376 6
 94  1 22 22 44 59.9950000  0  6 29 27 18 19 28 31
  20040782.163    -4445728.193 7  -3420669.665 8
  21172989.108   -20370156.435 6 -15670793.529 6
  18816136.562   -15374148.022 7 -11896500.690 8
  19630635.999   -17157561.836 7 -13281722.808 9
  22007944.116   -15281699.798 5 -11730529.369 5
  21420689.616   -15312116.581 6
 94  1 22 22 45 29.9950000  0  6 29 27 18 19 28 31
  20043400.218    -4431969.191 7  -3409948.369 8
  21152648.913   -20477056.078 6 -15754091.907 6
  18807889.179   -15417497.154 7 -11930279.243 8
  19617799.413   -17225006.170 7 -13334276.832 9
  21997862.679   -15334685.584 5 -11771816.970 6
  21400428.944   -15418574.979 6 -11692623.337 6
 94  1 22 22 45 59.9950000  0  6 29 27 18 19 28 31
  20046089.999    -4417835.437 7  -3398935.064 8
  21132325.952   -20583844.928 6 -15837303.978 6
  18799722.757   -15460405.106 7 -11963714.010 8
  19604998.530   -17292282.736 7 -13386700.112 9
  21987880.233   -15387162.943 5 -11812708.400 6
  21380239.140   -15524676.570 6 -11775299.874 5
 94  1 22 22 46 29.9950000  0  6 29 27 18 19 28 31
  20048849.663    -4403331.366 7  -3387633.200 8
  21112024.812   -20690524.188 6 -15920430.637 6
  18791642.749   -15502869.350 7 -11996803.043 8
  19592227.296   -17359391.379 7 -13438992.559 9
  21977981.905   -15439147.483 5 -11853215.816 5
  21360115.483   -15630423.095 6 -11857699.733 5
 94  1 22 22 46 59.9950000  0  6 29 27 18 19 28 31
  20051683.163    -4388443.455 7  -3376032.239 8
  21091746.702   -20797088.344 6 -16003467.601 6
  18783647.921   -15544891.963 7 -12029547.937 8
  19579492.858   -17426311.195 7 -13491137.863 9
  21968186.663   -15490623.964 5 -11893327.343 6
  21340060.265   -15735793.938 6 -11939806.849 5
 94  1 22 22 47 29.9950000  0  6 29 27 18 19 28 31
  20054591.023    -4373169.824 7  -3364130.719 8
  21071488.663   -20903549.946 6 -16086424.661 6
  18775732.616   -15586474.725 7 -12061950.096 8
  19566799.280   -17493034.978 7 -13543130.407 9
  21958485.054   -15541597.712 5 -11933047.131 6
  21320080.444   -15840800.400 6 -12021630.025 6
 94  1 22 22 47 59.9950000  0  6 29 27 18 19 28 31
  20057572.366    -4357500.394 7  -3351920.787 8
  21051249.491   -21009902.801 6 -16169297.003 6
  18767909.007   -15627592.066 7 -12093989.583 8
  19554138.773   -17559552.408 7 -13594962.165 9
  21948883.444   -15592048.289 5 -11972359.251 6
  21300173.515   -15945430.769 6 -12103160.134 5
 94  1 22 22 48 29.9950000  0  6 29 27 18 19 28 31
  20060627.233    -4341437.802 6  -3339404.496 8
  21031035.054   -21116139.661 6 -16252078.953 6
  18760173.507   -15668236.290 7 -12125660.404 8
  19541527.241   -17625848.167 7 -13646621.186 9
  21939389.624   -15641944.074 5 -12011239.071 5
  21280339.319   -16049661.981 6 -12184379.218 6
 94  1 22 22 48 59.9950000  0  6 29 27 18 19 28 31
  20063760.687    -4324977.523 6  -3326578.317 8
  21010839.648   -21222261.693 6 -16334771.405 6
  18752531.999   -15708397.395 7 -12156954.775 8
  19528952.749   -17691912.350 7 -13698099.762 9
  21930001.030   -15691290.290 5 -12049690.643 6
  21260578.577   -16153502.301 6 -12265293.698 6
 94  1 22 22 49 29.9950000  0  7 29 27  2 18 19 28 31
  20066969.624    -4308113.967 6  -3313437.896 8
  20990670.124   -21328256.783 6 -16417364.960 6
  23370683.757          -0.93813
  18744983.788   -15748062.228 7 -12187862.436 8
  19516423.468   -17757753.241 7 -13749404.343 9
  21920714.671   -15740089.374 5 -12087715.884 6
  21240891.140   -16256947.893 6 -12345900.594 6
 94  1 22 22 49 59.9950000  0  7 29 27  2 18 19 28 31
  20070253.398    -4290854.357 6  -3299988.856 8
  20970524.780   -21434121.892 6 -16499857.219 6
  23344031.991     -140032.654 3        -0.13814
  18737529.062   -15787233.318 7 -12218385.367 8
  19503936.327   -17823380.646 7 -13800542.565 9
  21911530.898   -15788337.546 5 -12125311.829 6
  21221284.780   -16359998.280 6 -12426199.544 6
 94  1 22 22 50 29.9950000  0  7 29 27  2 18 19 28 31
  20073610.921    -4273207.053 6  -3286237.725 8
  20950403.437   -21539855.824 6 -16582247.284 6
  23317419.085     -279913.210 3   -108997.823 1
  18730166.687   -15825930.510 7 -12248539.025 8
  19491481.405   -17888812.912 7 -13851528.735 9
  21902454.155   -15836046.541 5 -12162487.644 5
  21201743.710   -16462674.360 6 -12506206.828 6
 94  1 22 22 50 59.9950000  0  7 29 27  2 18 19 28 31
  20077042.093    -4255181.926 6  -3272192.187 8
  20930310.108   -21645452.350 6 -16664530.254 6
  23290829.226     -419633.479 3   -217870.648 2
  18722889.233   -15864163.361 7 -12278330.857 8
  19479069.452   -17954062.605 7 -13902372.641 9
  21893478.319   -15883224.923 5 -12199249.989 5
  21182276.890   -16564978.273 6 -12585924.116 5
 94  1 22 22 51 29.9950000  0  7 29 27  2 18 19 28 31
  20080537.585    -4236814.914 6  -3257880.242 7
  20910237.398   -21750931.770 6 -16746721.978 6
  23264269.937     -559216.612 3   -326636.574 1
  18715699.976   -15901955.095 7 -12307778.959 8
  19466679.265   -18019155.262 7 -13953094.178 9
  21884597.218   -15929877.688 5 -12235602.763 6
  21162878.687   -16666921.547 6 -12665360.380 6
 94  1 22 22 51 59.9950000  0  7 29 27  2 18 19 28 31
  20084100.515    -4218092.101 6  -3243291.054 8
  20890191.233   -21856275.825 6 -16828808.234 6
  23237735.569     -698653.090 3   -435288.265 2
  18708597.319   -15939287.620 7 -12336869.231 8
  19454325.405   -18084070.436 7 -14003677.418 9
  21875822.101   -15975992.778 5 -12271536.578 6
  21143553.085   -16768484.737 6 -12744500.473 6
 94  1 22 22 52 29.9950000  0  7 29 27  2 18 19 28 31
  20087731.819    -4199007.095 6  -3228419.643 8
  20870171.233   -21961479.203 6 -16910784.843 6
  23211224.483     -837965.899 3   -543843.559 2
  18701580.546   -15976155.623 7 -12365597.550 8
  19442009.624   -18148799.457 7 -14054115.594 9
  21867149.694   -16021573.870 5 -12307054.291 6
  21124299.952   -16869644.109 6 -12823325.915 6
 94  1 22 22 52 59.9950000  0  7 29 27  2 18 19 28 31
  20091436.124    -4179545.030 6  -3213254.411 8
  20850177.413   -22066545.474 6 -16992654.634 6
  23184740.648     -977166.863 3   -652311.701 1
  18694652.718   -16012549.482 7 -12393956.394 8
  19429732.421   -18213318.626 7 -14104390.265 9
  21858582.296   -16066615.262 6 -12342151.454 6
  21105130.687   -16970379.210 6 -12901820.759 6
 94  1 22 22 53 29.9950000  0  7 29 27  2 18 19 28 31
  20095215.023    -4159676.803 6  -3197772.692 7
  20830209.593   -22171477.708 6 -17074419.974 6
  23158270.108    -1116255.600 3   -760692.415 2
  18687821.616   -16048452.575 7 -12421932.836 8
  19417495.202   -18277618.351 7 -14154493.934 9
  21850107.476   -16111110.889 5 -12376823.343 6
  21086044.218   -17070686.348 6 -12979982.112 6
 94  1 22 22 53 59.9950000  0  7 29 27  2 18 19 28 31
  20099077.593    -4139388.829 6  -3181963.898 8
  20810266.155   -22276278.594 6 -17156082.981 7
  23131824.257    -1255229.933 3   -868983.996 2
  18681079.116   -16083875.263 7 -12449534.928 8
  19405303.905   -18341696.327 7 -14204424.812 9
  21841747.405   -16155072.641 5 -12411079.231 6
  21067041.898   -17170555.393 6 -13057802.091 6
 94  1 22 22 54 29.9950000  0  7 29 27  2 18 19 28 31
  20103015.546    -4118686.170 6  -3165831.983 7
  20790346.624   -22380963.005 6 -17237655.205 6
  23105393.726    -1394097.085 3   -977192.070 1
  18674431.741   -16118823.355 7 -12476767.210 8
  19393148.944   -18405559.512 7 -14254188.317 9
  21833480.030   -16198505.080 5 -12444922.670 6
  21048117.991   -17269992.467 6 -13135285.475 6
 94  1 22 22 54 59.9950000  0  7 29 27  2 18 19 28 31
  20107035.632    -4097571.267 6  -3149378.838 7
  20770449.601   -22485524.194 6 -17319131.437 6
  23078999.132    -1532835.024 3  -1085299.420 1
  18667873.569   -16153283.729 7 -12503619.452 8
  19381038.819   -18469200.986 7 -14303779.059 9
  21825318.187   -16241401.950 5 -12478348.781 6
  21029275.101   -17368998.843 6 -13212433.251 6
 94  1 22 22 55 29.9950000  0  7 29 27  2 18 19 28 31
  20111125.007    -4076071.912 6  -3132626.120 7
  20750573.952   -22589963.519 6 -17400512.684 6
  23052620.788    -1671436.760 3  -1193300.669 2
  18661405.679   -16187265.656 7 -12530098.877 8
  19368969.280   -18532635.711 7 -14353208.706 9
  21817255.648   -16283767.397 5 -12511360.794 6
  21010515.163   -17467583.042 6 -13289252.051 6
 94  1 22 22 55 59.9940000  0  7 29 27  2 18 19 28 31
  20115283.557    -4054213.022 6  -3115593.242 7
  20730726.572   -22694267.081 6 -17481788.169 6
  23026272.525    -1809887.103 3  -1301183.965 1
  18655029.471   -16220765.232 7 -12556202.443 8
  19356937.244   -18595867.138 7 -14402479.937 9
  21809300.213   -16325591.720 5 -12543951.154 6
  20991836.400   -17565740.197 6 -13365738.086 6
 94  1 22 22 56 29.9940000  0  7 29 27  2 18 19 28 31
  20119512.963    -4031999.775 6  -3098284.248 7
  20710905.869   -22798424.870 6 -17562950.037 7
  22999960.104    -1948183.715 3  -1408947.458 2
  18648749.260   -16253780.350 7 -12581928.518 8
  19344940.244   -18658896.913 7 -14451594.043 9
  21801444.752   -16366861.290 5 -12576109.236 5
  20973238.268   -17663480.981 6 -13441899.681 6
 94  1 22 22 56 59.9940000  0  7 29 27  2 18 19 28 31
  20123807.400    -4009428.533 6  -3080696.300 7
  20691116.455   -22902419.130 6 -17643984.487 6
  22973671.893    -2086304.684 3  -1516574.088 2
  18642559.119   -16286309.027 7 -12607275.543 8
  19332988.330   -18721711.032 7 -14500540.095 9
  21793697.807   -16407553.124 5 -12607817.132 5
  20954718.541   -17760805.936 6 -13517737.234 6
 94  1 22 22 57 29.9940000  0  7 29 27  2 18 19 28 31
  20128174.393    -3986487.942 6  -3062820.550 7
  20671358.744   -23006248.763 6 -17724890.660 7
  22947422.307    -2224250.780 3  -1624064.471 2
  18636460.010   -16318351.550 7 -12632243.746 8
  19321076.252   -18784320.710 7 -14549326.857 9
  21786067.393   -16447657.436 5 -12639067.222 6
  20936278.322   -17857712.970 6 -13593249.131 6
 94  1 22 22 57 59.9940000  0  7 29 27  2 18 19 28 31
  20132608.174    -3963189.853 6  -3044666.228 7
  20651626.588   -23109934.293 6 -17805684.541 7
  22921201.299    -2362042.930 3  -1731434.885 1
  18630452.111   -16349926.138 7 -12656847.330 8
  19309195.229   -18846746.353 7 -14597970.213 9
  21778543.994   -16487211.207 5 -12669888.317 6
  20917912.158   -17954215.407 6 -13668445.752 6
 94  1 22 22 58 29.9940000  0  7 29 27  2 18 19 28 31
  20137111.268    -3939516.048 6  -3026219.144 7
  20631923.119   -23213485.422 6 -17886373.696 7
  22895009.424    -2499678.233 3  -1838683.091 4
  18624535.838   -16381024.503 7 -12681079.821 8
  19297350.736   -18908974.489 7 -14646459.666 9
  21771120.799   -16526218.320 5 -12700283.436 6
  20899629.354   -18050296.573 6 -13743314.096 6
 94  1 22 22 58 59.9940000  0  7 29 27  2 18 19 28 31
  20141689.518    -3915461.237 6  -3007475.172 7
  20612240.283   -23316921.615 6 -17966973.287 7
  22868848.072    -2637158.293 3  -1945810.310 2
  18618710.346   -16411632.006 7 -12704929.826 8
  19285547.252   -18971015.493 7 -14694803.302 9
  21763798.119   -16564687.395 5 -12730259.313 5
  20881427.307   -18145947.395 6 -13817847.114 6
 94  1 22 22 59 29.9940000  0  7 29 27  2 18 19 28 31
  20146337.900    -3891039.462 6  -2988445.255 7
  20592575.713   -23420255.993 6 -18047493.541 7
  22842715.971    -2774494.873 3  -2052825.749 2
  18612979.611   -16441750.176 7 -12728398.535 8
  19273770.471   -19032888.323 7 -14743015.893 9
  21756579.361   -16602643.641 5 -12759835.579 6
  20863312.854   -18241142.915 6 -13892025.338 6
 94  1 22 22 59 59.9940000  0  7 29 27  2 18 19 28 31
  20151049.690    -3866265.360 6  -2969140.799 7
  20572929.580   -23523491.303 6 -18127936.614 7
  22816610.143    -2911690.950 4  -2159731.708 4
  18607340.432   -16471382.663 7 -12751488.788 8
  19262031.815   -19094587.261 7 -14791092.989 9
  21749448.096   -16640094.029 6 -12789017.678 6
  20845283.768   -18335881.328 6 -13965847.380 6
 94  1 22 23  0 29.9940000  0  7 29 27  2 18 19 28 31
  20155831.354    -3841151.471 6  -2949571.575 7
  20553299.947   -23626642.385 6 -18208314.050 7
  22790525.565    -3048753.712 4  -2266533.792 3
  18601793.541   -16500533.145 7 -12774203.450 8
  19250320.221   -19156129.872 7 -14839048.258 9
  21742418.971   -16677026.482 6 -12817796.182 6
  20827340.268   -18430173.771 6 -14039321.905 6
 94  1 22 23  0 59.9940000  0  7 29 27  2 18 19 28 31
  20160674.783    -3815688.422 6  -2929730.283 7
  20533696.322   -23729665.320 6 -18288591.620 7
  22764473.236    -3185662.123 4  -2373215.602 3
  18596341.861   -16529189.240 7 -12796532.880 8
  19238641.791   -19217492.849 7 -14886863.558 9
  21735494.346   -16713420.222 6 -12846154.916 6
  20809487.690   -18523997.993 6 -14112431.584 6
 94  1 22 23  1 29.9940000  0  7 29 27  2 18 19 28 31
  20165586.057    -3789883.762 6  -2909622.795 7
  20514116.971   -23832554.168 6 -18368764.726 6
  22738448.885    -3322416.611 4  -2479777.483 4
  18590978.533   -16557361.048 7 -12818484.942 8
  19227003.190   -19278662.901 7 -14934528.525 9
  21728668.932   -16749285.026 5 -12874101.498 5
  20791724.174   -18617358.435 6 -14185179.887 6
 94  1 22 23  1 59.9940000  0  7 29 27  2 18 19 28 31
  20170563.963    -3763722.257 6  -2889237.251 7
  20494564.541   -23935307.529 6 -18448832.248 7
  22712457.182    -3459008.289 4  -2586212.476 3
  18585711.354   -16585048.198 7 -12840059.347 8
  19215402.275   -19339625.738 7 -14982032.023 9
  21721949.260   -16784608.512 5 -12901626.276 6
  20774038.033   -18710281.281 6 -14257587.204 6
 94  1 22 23  2 29.9940000  0  7 29 27  2 18 19 28 31
  20175613.002    -3737188.804 6  -2868561.867 7
  20475036.557   -24037918.037 6 -18528788.456 7
  22686494.815    -3595431.480 4  -2692516.206 4
  18580535.166   -16612243.454 7 -12861250.468 8
  19203841.674   -19400373.300 7 -15029367.784 9
  21715327.174   -16819387.103 5 -12928726.458 5
  20756441.572   -18802757.696 6 -14329646.656 6
 94  1 22 23  2 59.9940000  0  7 29 27  2 18 19 28 31
  20180737.939    -3710263.002 6  -2847580.764 7
  20455543.619   -24140363.482 6 -18608616.051 7
  22660572.213    -3731677.014 4  -2798681.510 4
  18575454.650   -16638944.085 7 -12882056.153 8
  19192327.971   -19460882.149 7 -15076517.532 9
  21708818.369   -16853617.100 5 -12955399.170 6
  20738929.080   -18894766.798 6 -14401341.978 6
 94  1 22 23  3 29.9940000  0  7 29 27  2 18 19 28 31
  20185936.182    -3682941.801 6  -2826291.553 7
  20436076.252   -24242667.901 6 -18688333.759 7
  22634672.635    -3867748.960 3  -2904711.529 4
  18570469.049   -16665150.735 7 -12902476.927 8
  19180853.385   -19521170.862 7 -15123495.738 9
  21702410.518   -16887296.684 6 -12981642.981 5
  20721511.440   -18986319.139 6 -14472681.385 6
 94  1 22 23  3 59.9940000  0  7 29 27  2 18 19 28 31
  20191215.299    -3655213.767 6  -2804685.332 7
  20416637.143   -24344815.312 6 -18767929.099 7
  22608814.088    -4003644.489 4  -3010604.080 5
  18565577.041   -16690854.012 7 -12922505.460 8
  19169422.291   -19581251.106 7 -15170311.501 9
  21696107.783   -16920400.600 5 -13007438.217 5
  20704181.533   -19077400.279 6 -14543653.632 6
 94  1 22 23  4 29.9940000  0  7 29 27  2 18 19 28 31
  20196560.502    -3627117.719 6  -2782792.338 7
  20397225.885   -24446828.217 6 -18847419.666 7
  22582984.205    -4139388.223 4  -3116378.369 3
  18560775.900   -16716084.979 7 -12942165.952 8
  19158024.908   -19641149.257 7 -15216985.377 9
  21689909.205   -16952953.224 5 -13032803.900 5
  20686934.127   -19168013.080 6 -14614260.948 6
 94  1 22 23  4 59.9940000  0  7 29 27  2 18 19 28 31
  20201974.627    -3598666.492 6  -2760622.586 7
  20377833.752   -24548723.354 6 -18926818.437 7
  22557183.252    -4274977.434 4  -3222032.240 4
  18556060.768   -16740854.007 7 -12961466.502 8
  19146659.768   -19700880.943 7 -15263529.533 9
  21683820.541   -16984966.622 5 -13057749.392 6
  20669779.611   -19258164.299 6 -14684508.590 6
 94  1 22 23  5 29.9940000  0  7 29 27  2 18 19 28 31
  20207454.736    -3569853.669 6  -2738171.063 7
  20358466.791   -24650489.993 6 -19006117.085 7
  22531414.658    -4410388.287 4  -3327547.141 3
  18551440.791   -16765137.518 7 -12980388.726 8
  19135326.111   -19760431.651 7 -15309932.673 9
  21677837.729   -17016418.721 5 -13082257.507 5
  20652714.994   -19347839.728 6 -14754385.490 6
 94  1 22 23  5 59.9940000  0  7 29 27  2 18 19 28 31
  20213006.791    -3540689.652 6  -2715445.880 7
  20339126.643   -24752134.032 6 -19085320.209 7
  22505678.854    -4545623.352 4  -3432925.054 2
  18546909.018   -16788948.968 7 -12998943.105 8
  19124029.838   -19819794.319 7 -15356189.293 9
  21671956.947   -17047322.711 5 -13106338.534 5
  20635740.018   -19437043.583 6 -14823894.936 6
 94  1 22 23  6 29.9940000  0  7 29 27  2 18 19 28 31
  20218620.783    -3511176.668 6  -2692448.780 7
  20319806.260   -24853664.274 6 -19164434.654 7
  22479978.682    -4680672.945 4  -3538158.462 5
  18542469.025   -16812281.332 7 -13017124.165 8
  19112771.736   -19878951.545 7 -15402285.813 9
  21666181.916   -17077685.697 5 -13129997.999 5
  20618855.041   -19525773.074 6 -14893034.759 6
 94  1 22 23  6 59.9940000  0  7 29 27  2 18 19 28 31
  20224304.791    -3481307.527 6  -2669174.158 7
  20300508.877   -24955078.724 6 -19243458.875 7
  22454314.877    -4815549.823 4  -3643257.266 5
  18538122.838   -16835125.851 7 -13034925.103 8
  19101551.635   -19937911.907 7 -15448228.939 9
  21660502.080   -17107513.193 5 -13153240.193 5
  20602059.150   -19614038.546 6 -14961813.018 6
 94  1 22 23  7 29.9940000  0  7 29 27  2 18 19 28 31
  20230059.760    -3451073.709 6  -2645615.363 7
  20281233.307   -25056365.697 6 -19322383.754 7
  22428681.486    -4950258.988 4  -3748225.399 3
  18533868.447   -16857479.977 7 -13052343.904 8
  19090370.650   -19996670.828 7 -15494015.097 9
  21654934.010   -17136788.326 5 -13176051.991 5
  20585349.674   -19701839.003 6 -15030228.918 6
 94  1 22 23  7 59.9940000  0  7 29 27  2 18 19 28 31
  20235881.947    -3420474.211 6  -2621771.633 7
  20261983.877   -25157528.710 6 -19401212.056 7
  22403079.611    -5084807.063 4  -3853068.002 2
  18529708.682   -16879340.934 7 -13069378.408 8
  19079227.494   -20055238.235 7 -15539652.020 9
  21649462.322   -17165514.471 6 -13198435.996 6
  20568729.393   -19789174.189 6 -15098282.278 6
 94  1 22 23  8 29.9940000  0  7 29 27  2 18 19 28 31
  20241774.033    -3389518.348 6  -2597650.209 7
  20242755.025   -25258569.872 6 -19479945.402 7
  22377500.893    -5219199.545 4  -3957789.378 2
  18525642.736   -16900702.763 7 -13086024.008 8
  19068113.190   -20113630.296 7 -15585152.316 9
  21644105.768   -17193695.886 5 -13220395.524 6
  20552202.322   -19876038.927 6 -15165969.063 6
 94  1 22 23  8 59.9940000  0  7 29 27  2 18 19 28 31
  20247733.947    -3358188.787 6  -2573237.599 7
  20223556.424   -25359456.010 6 -19558557.958 7
  22351964.775    -5353404.324 5  -4062364.471 2
  18521679.166   -16921540.650 7 -13102261.329 8
  19057040.416   -20171821.252 7 -15630495.908 9
  21638844.768   -17221305.799 5 -13241909.724 5
  20535766.916   -19962405.651 6 -15233267.780 6
 94  1 22 23  9 29.9940000  0  7 29 27  2 18 19 28 31
  20253762.869    -3326516.790 6  -2548558.147 7
  20204381.354   -25460215.635 6 -19637071.912 7
  22326460.838    -5487426.223 5  -4166797.044 3
  18517809.775   -16941871.676 7 -13118103.689 8
  19046007.588   -20229813.666 7 -15675684.790 9
  21633698.885   -17248361.373 5 -13262991.982 5
  20519423.002   -20048280.723 6 -15300183.388 6
 94  1 22 23  9 59.9940000  0  7 29 27  2 18 19 28 31
  20259854.674    -3294509.058 6  -2523617.089 7
  20185234.361   -25560850.597 6 -19715488.743 7
  22300992.424    -5621265.330 5  -4271087.218 3
  18514037.752   -16961689.950 7 -13133546.504 8
  19035007.893   -20287600.631 7 -15720713.586 9
  21628655.955   -17274873.293 5 -13283650.602 5
  20503177.525   -20133653.929 6 -15366707.936 6
 94  1 22 23 10 29.9940000  0  7 29 27  2 18 19 28 31
  20266007.260    -3262176.445 6  -2498422.880 6
  20166106.189   -25661361.067 6 -19793808.550 7
  22275556.416    -5754926.072 5  -4375238.352 4
  18510361.924   -16981011.080 7 -13148601.935 8
  19024048.010   -20345183.386 7 -15765583.262 9
  21623709.213   -17300851.862 5 -13303893.614 5
  20487028.611   -20218528.682 6 -15432844.078 6
 94  1 22 23 10 59.9940000  0  7 29 27  2 18 19 28 31
  20272219.174    -3229518.956 6  -2472975.525 6
  20147002.807   -25761749.932 6 -19872033.613 7
  22250152.377    -5888413.982 5  -4479254.832 4
  18506777.104   -16999852.678 7 -13163283.708 8
  19013131.502   -20402565.349 7 -15810296.465 9
  21618865.455   -17326306.639 5 -13323728.486 5
  20470967.893   -20302919.139 6 -15498602.858 6
 94  1 22 23 11 29.9940000  0  7 29 27  2 18 19 28 31
  20278497.221    -3196526.398 6  -2447267.066 7
  20127924.455   -25862015.281 6 -19950162.428 7
  22224785.447    -6021727.903 5  -4583135.759 3
  18503280.432   -17018223.466 7 -13177598.612 8
  19002246.822   -20459759.639 7 -15854863.434 9
  21614125.799   -17351232.265 5 -13343151.026 5
  20455001.315   -20386830.998 6 -15563988.696 6
 94  1 22 23 11 59.9940000  0  7 29 27  2 18 19 28 31
  20284842.221    -3163188.734 6  -2421289.700 7
  20108869.479   -25962142.626 6 -20028183.693 7
  22199451.471    -6154849.491 5  -4686866.794 4
  18499871.049   -17036134.779 7 -13191555.481 8
  18991395.479   -20516792.139 7 -15899304.328 9
  21609483.057   -17375628.553 5 -13362161.099 5
  20439125.588   -20470258.975 6 -15628997.482 6
 94  1 22 23 12 29.9940000  0  7 29 27  2 18 19 28 31
  20291252.916    -3129507.978 6  -2395044.990 6
  20089843.518   -26062128.538 6 -20106094.777 7
  22174158.557    -6287772.074 5  -4790442.736 3
  18496549.190   -17053596.458 7 -13205161.994 8
  18980571.010   -20573663.116 7 -15943619.371 9
  21604939.307   -17399492.768 5 -13380756.559 5
  20423341.689   -20553202.441 6 -15693628.726 6
 94  1 22 23 12 59.9940000  0  7 29 27  2 18 19 28 31
  20297727.658    -3095484.290 6  -2368533.067 6
  20070842.315   -26161970.996 6 -20183894.061 7
  22148902.346    -6420491.494 5  -4893860.410 4
  18493313.971   -17070603.872 7 -13218414.532 8
  18969781.111   -20630374.800 7 -15987810.285 9
  21600500.486   -17422818.604 5 -13398932.519 5
  20407653.924   -20635652.609 6 -15757875.578 6
 94  1 22 23 13 29.9940000  0  7 29 27  2 18 19 28 31
  20304265.010    -3061126.316 6  -2341760.654 6
  20051870.525   -26261679.149 6 -20261588.690 7
  22123686.432    -6553005.516 5  -4997118.004 4
  18490164.502   -17087157.302 7 -13231313.317 8
  18959019.822   -20686921.710 7 -16031872.805 9
  21596162.979   -17445603.519 5 -13416686.988 6
  20392059.424   -20717589.544 6 -15821722.516 6
 94  1 22 23 13 59.9940000  0  7 29 27  2 18 19 28 31
  20310864.510    -3026442.081 6  -2314734.018 6
  20032922.315   -26361254.259 6 -20339179.661 7
  22098507.275    -6685327.424 5  -5100225.924 4
  18487103.197   -17103241.441 7 -13243846.421 8
  18948292.783   -20743285.050 7 -16075792.277 9
  21591930.135   -17467850.669 5 -13434022.415 6
  20376566.393   -20798996.965 6 -15885156.844 6
 94  1 22 23 14 29.9930000  0  7 29 27  2 18 19 28 31
  20317527.755    -2991427.121 6  -2287449.673 6
  20013997.606   -26460698.819 6 -20416668.906 7
  22073362.224    -6817469.249 5  -5203193.512 5
  18484135.013   -17118834.549 7 -13255996.907 8
  18937611.021   -20799439.041 7 -16119548.625 9
  21587800.856   -17489559.429 5 -13450938.323 5
  20361175.247   -20879876.323 6 -15948179.682 6
 94  1 22 23 14 59.9930000  0  7 29 27  2 18 19 28 31
  20324256.247    -2956067.394 6  -2259896.676 6
  19995097.450   -26560021.455 6 -20494063.137 7
  22048253.153    -6949419.216 5  -5306011.617 5
  18481265.036   -17133915.472 7 -13267748.287 8
  18926964.606   -20855375.280 7 -16163135.291 9
  21583769.458   -17510719.562 5 -13467426.739 6
  20345887.817   -20960214.507 6 -16010780.824 6
 94  1 22 23 15 29.9930000  0  7 29 27  2 18 19 28 31
  20331049.216    -2920363.354 6  -2232075.386 6
  19976219.966   -26659226.941 6 -20571366.085 8
  22023180.724    -7081171.806 5  -5408675.915 1
  18478493.474   -17148474.323 7 -13279092.858 8
  18916363.169   -20911093.528 7 -16206552.102 9
  21579850.677   -17531327.841 5 -13483485.135 6
  20330702.435   -21040016.321 6 -16072964.025 6
 94  1 22 23 15 59.9930000  0  8 29 27  2 18 19 16 28 31
  20337912.013    -2884318.512 6  -2203988.548 6
  19957364.192   -26758311.328 6 -20648574.669 7
  21998142.474    -7212735.883 5  -5511193.309 3
  18475825.474   -17162497.135 7 -13290019.737 8
  18905799.466   -20966606.931 7 -16249809.287 9
  22884597.927     -109660.862 3
  21576034.614   -17551382.284 5 -13499111.977 5
  20315615.700   -21119287.860 6 -16134734.019 6
 94  1 22 23 16 29.9930000  0  8 29 27  2 18 19 16 28 31
  20344835.638    -2847929.174 6  -2175633.257 6
  19938532.778   -26857267.447 6 -20725683.322 7
  21973148.653    -7344094.528 5  -5613550.647 4
  18473257.763   -17175990.350 7 -13300533.940 8
  18895272.802   -21021923.614 7 -16292913.188 9
  22863820.849     -218890.490 3        -0.30612
  21572330.060   -17570873.548 5 -13514299.976 5
  20300634.177   -21198030.276 6 -16196091.717 6
 94  1 22 23 16 59.9930000  0  8 29 27  2 18 19 16 28 31
  20351816.661    -2811228.236 6  -2147035.165 6
  19919725.052   -26956100.898 6 -20802696.374 8
  21948186.708    -7475255.610 5  -5715754.021 3
  18470785.950   -17188984.917 7 -13310659.591 8
  18884778.341   -21077068.668 7 -16335883.354 9
  22843115.067     -327705.793 3    -84791.348 2
  21568726.630   -17589804.627 5 -13529051.482 5
  20285747.731   -21276256.767 6 -16257047.385 6
 94  1 22 23 17 29.9930000  0  8 29 27  2 18 19 16 28 31
  20358860.169    -2774222.283 6  -2118199.407 6
  19900945.114   -27054797.043 6 -20879602.443 7
  21923262.677    -7606232.460 5  -5817813.846 4
  18468405.216   -17201490.726 7 -13320404.392 8
  18874316.919   -21132046.853 7 -16378723.488 9
  22822488.216     -436110.810 3   -169262.718 1
  21565228.771   -17608184.830 5 -13543373.732 5
  20270956.638   -21353975.222 6 -16317607.194 6
 94  1 22 23 17 59.9930000  0  8 29 27  2 18 19 16 28 31
  20365960.396    -2736911.576 6  -2089126.179 6
  19882190.411   -27153348.761 6 -20956395.960 8
  21898372.052    -7737026.727 5  -5919731.390 3
  18466114.919   -17213533.112 7 -13329788.080 8
  18863886.794   -21186854.341 7 -16421430.615 9
  22801934.950     -544101.589 3   -253411.269 1
  21561830.466   -17626025.690 5 -13557275.710 5
  20256266.544   -21431188.470 6 -16377773.333 6
 94  1 22 23 18 29.9930000  0  8 29 27  2 18 19 16 28 31
  20373121.255    -2699282.178 6  -2059804.622 6
  19863465.692   -27251752.613 6 -21033074.270 7
  21873523.028    -7867625.951 5  -6021496.955 4
  18463907.396   -17225125.367 7 -13338821.018 8
  18853492.825   -21241475.669 7 -16463992.683 9
  22781463.911     -651692.333 3   -337248.120 2
  21558536.364   -17643330.671 5 -13570760.132 5
  20241665.692   -21507906.634 6 -16437553.681 6
 94  1 22 23 18 59.9930000  0  8 29 27  2 18 19 16 28 31
  20380342.896    -2661330.714 6  -2030232.100 6
  19844765.396   -27350019.494 6 -21109645.847 7
  21848704.614    -7998037.015 5  -6123115.893 4
  18461787.794   -17236267.530 7 -13347503.232 8
  18843135.278   -21295911.529 7 -16506410.221 9
  22761063.505     -758878.419 3   -420769.644 2
  21555347.271   -17660119.440 5 -13583842.298 5
  20227157.044   -21584135.413 6 -16496952.690 6
 94  1 22 23 19 29.9930000  0  8 29 27  2 18 19 16 28 31
  20387632.278    -2623031.905 6  -2000388.920 6
  19826090.138   -27448153.935 6 -21186114.215 8
  21823927.974    -8128257.454 5  -6224586.290 4
  18459757.552   -17246943.857 7 -13355822.458 8
  18832814.481   -21350140.276 7 -16548666.384 9
  22740748.067     -865641.409 3   -503961.497 2
  21552245.700   -17676394.061 5 -13596523.840 5
  20212749.942   -21659859.696 6 -16555958.588 6
 94  1 22 23 19 59.9930000  0  8 29 27  2 18 19 16 28 31
  20394986.950    -2584383.886 6  -1970273.632 6
  19807436.481   -27546174.793 6 -21262494.071 8
  21799177.817    -8258293.842 5  -6325913.263 5
  18457812.169   -17257156.765 7 -13363780.577 8
  18822531.458   -21404169.051 7 -16590766.712 9
  22720518.700     -971979.303 3   -586822.046 1
  21549248.317   -17692155.187 5 -13608805.247 5
  20198438.349   -21735088.352 6 -16614578.276 6
 94  1 22 23 20 29.9930000  0  8 29 27  2 18 19 16 28 31
  20402408.036    -2545382.995 6  -1939883.383 6
  19788806.700   -27644079.868 6 -21338783.729 8
  21774475.067    -8388126.951 5  -6427081.854 4
  18455965.614   -17266869.565 7 -13371349.007 8
  18812292.216   -21457985.883 7 -16632701.901 9
  22700368.356    -1077874.701 3   -669337.853 3
  21546348.630   -17707391.609 5 -13620677.799 5
  20184218.427   -21809801.764 6 -16672796.495 7
 94  1 22 23 20 59.9930000  0  8 29 27  2 18 19 16 28 31
  20409894.005    -2506037.601 6  -1909224.679 6
  19770201.599   -27741853.877 6 -21414971.243 8
  21749809.810    -8517746.649 5  -6528084.131 3
  18454216.099   -17276059.450 7 -13378509.963 8
  18802090.872   -21511593.769 7 -16674474.268 9
  22680299.146    -1183313.527 3   -751497.851 2
  21543549.380   -17722093.547 5 -13632133.863 5
  20170106.278   -21883967.626 6 -16730588.038 6
 94  1 22 23 21 29.9930000  0  8 29 27  2 18 19 16 28 31
  20417442.521    -2466371.841 6  -1878316.341 6
  19751618.005   -27839503.423 6 -21491061.773 8
  21725181.622    -8647162.818 5  -6628927.847 5
  18452563.106   -17284744.811 7 -13385277.793 8
  18791927.786   -21565001.509 7 -16716090.682 9
  22660314.606    -1288316.264 3   -833318.081 2
  21540856.794   -17736261.203 5 -13643173.593 5
  20156094.122   -21957588.955 6 -16787955.276 6
 94  1 22 23 21 59.9930000  0  8 29 27  2 18 19 16 28 31
  20425053.794    -2426392.781 6  -1847163.879 6
  19733064.942   -27937009.208 6 -21567040.277 8
  21700594.411    -8776366.894 5  -6729606.271 5
  18451007.653   -17292921.120 7 -13391648.946 8
  18781799.450   -21618218.016 7 -16757558.075 9
  22640416.989    -1392885.282 3   -914800.342 2
  21538259.700   -17749885.237 5 -13653789.707 5
  20142193.552   -22030651.914 6 -16844887.430 6
 94  1 22 23 22 29.9930000  0  8 29 27  2 18 19 16 28 31
  20432716.708    -2386119.521 6  -1815782.170 6
  19714540.161   -28034353.594 6 -21642893.023 8
  21676047.302    -8905358.731 5  -6830119.325 5
  18449547.786   -17300586.709 7 -13397622.140 8
  18771709.622   -21671247.980 7 -16798880.122 9
  22620596.810    -1497031.838 4   -995953.408 3
  21535775.864   -17762965.130 5 -13663981.823 5
  20128396.380   -22103149.558 6 -16901379.070 6
 94  1 22 23 22 59.9930000  0  8 29 27  2 18 19 16 28 31
  20440433.560    -2345555.231 6  -1784173.689 6
  19696049.294   -28131531.904 6 -21718616.348 8
  21651540.903    -9034153.634 5  -6930478.925 5
  18448184.958   -17307759.759 7 -13403211.538 8
  18761652.403   -21724095.023 7 -16840059.624 9
  22600856.786    -1600756.434 3  -1076777.707 1
  21533384.927   -17775504.163 5 -13673752.484 6
  20114706.841   -22175085.396 6 -16957432.947 7
 94  1 22 23 23 29.9930000  0  8 29 27  2 18 19 16 28 31
  20448209.177    -2304687.511 6  -1752328.756 6
  19677583.536   -28228553.670 6 -21794217.698 8
  21627069.052    -9162751.466 5  -7030684.959 5
  18446910.880   -17314450.271 7 -13408424.932 8
  18751633.528   -21776745.606 7 -16881086.043 9
  22581205.153    -1704035.990 3  -1157255.213 2
  21531108.146   -17787492.225 5 -13683093.827 5
  20101121.786   -22246472.004 6 -17013058.850 6
 94  1 22 23 23 59.9930000  0  8 29 27  2 18 19 16 28 31
  20456043.560    -2263525.133 6  -1720254.228 6
  19659149.396   -28325427.163 6 -21869703.508 7
  21602634.286    -9291152.377 5  -7130737.567 5
  18445732.310   -17320646.546 7 -13413253.205 8
  18741647.513   -21829218.670 7 -16921974.132 9
  22561638.435    -1806874.483 3  -1237389.032 2
  21528926.692   -17798943.162 5 -13692016.619 5
  20087640.739   -22317319.489 6 -17068264.663 7
 94  1 22 23 24 29.9930000  0  8 29 27  2 18 19 16 28 31
  20463937.192    -2222056.487 6  -1687941.051 6
  19640743.747   -28422154.831 6 -21945075.688 7
  21578241.817    -9419341.158 5  -7230624.866 5
  18444648.364   -17326337.834 7 -13417687.980 8
  18731698.310   -21881499.333 7 -16962712.299 9
  22542152.677    -1909250.760 3  -1317162.698 4
  21526851.536   -17809851.828 5 -13700516.861 5
  20074262.997   -22387630.576 6 -17123052.496 7
 94  1 22 23 24 59.9930000  0  8 29 27  2 18 19 16 28 31
  20471885.630    -2180278.128 6  -1655386.537 6
  19622358.271   -28518767.914 6 -22020358.588 8
  21553888.364    -9547318.562 5  -7330347.471 5
  18443658.755   -17331536.068 7 -13421738.560 8
  18721786.958   -21933598.158 7 -17003308.773 9
  22522764.739    -2011159.815 3  -1396572.244 3
  21524878.208   -17820225.831 5 -13708600.486 5
  20060978.388   -22457420.452 6 -17177434.201 7
 94  1 22 23 25 29.9930000  0  8 29 27  2 18 19 16 28 31
  20479895.669    -2138186.318 6  -1622587.771 6
  19603996.099   -28615273.181 6 -22095557.462 8
  21529577.192    -9675065.329 5  -7429890.355 5
  18442763.591   -17336240.951 7 -13425404.705 8
  18711907.427   -21985516.331 7 -17043764.475 9
  22503462.099    -2112606.210 3  -1475621.298 2
  21523003.341   -17830063.252 5 -13716266.019 5
  20047798.653   -22526684.255 6 -17231405.965 7
 94  1 22 23 25 59.9930000  0  8 29 27  2 18 19 16 28 31
  20487959.380    -2095792.742 6  -1589553.868 6
  19585653.450   -28711663.727 6 -22170666.957 8
  21505313.060    -9802576.659 5  -7529249.786 5
  18441961.724   -17340462.050 7 -13428693.868 8
  18702057.739   -22037266.109 7 -17084088.959 9
  22484231.005    -2213612.402 3  -1554327.356 2
  21521228.606   -17839392.243 5 -13723535.349 5
  20034721.810   -22595412.642 6 -17284960.521 7
 94  1 22 23 26 29.9930000  0  8 29 27  2 18 19 16 28 31
  20496084.661    -2053099.659 6  -1556286.569 6
  19567330.075   -28807948.479 6 -22245694.014 8
  21481092.138    -9929866.833 5  -7628436.909 5
  18441240.567   -17344239.882 7 -13431637.644 9
  18692245.896   -22088844.818 7 -17124280.147 9
  22465096.997    -2314185.585 3  -1632696.001 2
  21519551.989   -17848221.777 5 -13730415.491 5
  20021739.247   -22663614.178 6 -17338104.541 7
 94  1 22 23 26 59.9930000  0  8 29 27  2 18 19 16 28 31
  20504271.091    -2010096.621 6  -1522777.750 6
  19549028.677   -28904113.458 6 -22320627.733 8
  21456916.403   -10056916.517 5  -7727436.616 5
  18440606.005   -17347582.865 7 -13434242.571 8
  18682461.653   -22140245.117 7 -17164332.315 9
  22446038.911    -2414320.059 3  -1710722.794 3
  21517965.669   -17856548.038 5 -13736903.485 5
  20008872.731   -22731259.931 6 -17390815.487 7
 94  1 22 23 27 29.9930000  0  8 29 27  2 18 19 16 28 31
  20512512.606    -1966785.000 6  -1489028.466 6
  19530757.075   -29000141.289 6 -22395454.588 8
  21432783.271   -10183727.299 5  -7826250.180 5
  18440053.278   -17350495.894 7 -13436512.476 9
  18672717.224   -22191459.560 7 -17204239.653 9
  22427079.763    -2514013.829 3  -1788406.173 3
  21516473.810   -17864379.851 5 -13743006.197 5
  19996102.185   -22798337.399 6 -17443083.609 7
 94  1 22 23 27 59.9930000  0  8 29 27  2 18 19 16 28 31
  20520812.817    -1923166.170 6  -1455039.814 6
  19512509.802   -29096022.561 6 -22470167.254 8
  21408693.810   -10310317.113 5  -7924891.562 5
  18439583.083   -17352966.927 7 -13438437.958 8
  18663008.255   -22242484.565 7 -17243999.380 9
  22408189.325    -2613258.275 3  -1865739.444 2
  21515077.325   -17871706.178 5 -13748715.020 5
  19983446.013   -22864847.957 6 -17494909.981 7
 94  1 22 23 28 29.9930000  0  8 29 27  2 18 19 16 28 31
  20529171.333    -1879235.234 6  -1420807.951 6
  19494292.255   -29191765.813 7 -22544772.362 8
  21384643.864   -10436697.851 5  -8023370.025 5
  18439195.841   -17354982.605 7 -13440008.624 8
  18653331.958   -22293325.257 7 -17283615.491 9
  22389389.896    -2712039.761 3  -1942711.949 4
  21513786.669   -17878496.740 5 -13754006.363 5
  19970899.966   -22930786.606 6 -17546290.706 7
 94  1 22 23 28 59.9930000  0  8 29 27  2 18 19 16 28 31
  20537588.481    -1834998.801 6  -1386338.039 6
  19476097.739   -29287373.289 7 -22619271.671 8
  21360635.122   -10562868.053 5  -8121684.433 5
  18438904.411   -17356515.500 7 -13441203.089 8
  18643694.614   -22343972.326 7 -17323080.717 9
  22370682.505    -2810347.022 3  -2019314.955 2
  21512599.888   -17884734.181 5 -13758866.703 5
  19958463.677   -22996143.547 6 -17597218.168 6
 94  1 22 23 29 29.9930000  0  8 29 27  2 18 19 16 28 31
  20546062.481    -1790475.418 6  -1351644.526 6
  19457931.755   -29382850.427 7 -22693669.415 8
  21336659.974   -10688853.581 5  -8219854.949 5
  18438708.489   -17357554.120 7 -13442012.408 8
  18634092.130   -22394424.445 7 -17362394.043 9
  22352064.411    -2908194.807 4  -2095559.923 3
  21511516.146   -17890411.996 5 -13763290.982 5
  19946134.927   -23060939.465 6 -17647708.462 7
 94  1 22 23 29 59.9930000  0  8 29 27  2 18 19 16 28 31
  20554585.060    -1745675.969 6  -1316735.907 6
  19439784.317   -29478202.288 7 -22767969.554 8
  21312720.333   -10814650.841 5  -8317878.732 5
  18438604.146   -17358093.086 7 -13442432.391 8
  18624527.060   -22444690.845 7 -17401562.654 9
  22333529.771    -3005588.302 4  -2171450.902 2
  21510545.653   -17895530.925 5 -13767279.768 5
  19933912.231   -23125174.155 6 -17697761.436 6
 94  1 22 23 30 29.9930000  0  8 29 27  2 18 19 16 28 31
  20563162.685    -1700612.346 6  -1281621.436 6
  19421664.106   -29573427.998 7 -22842171.386 8
  21288821.786   -10940247.074 5  -8415745.887 5
  18438596.505   -17358138.223 7
  18614997.935   -22494764.493 7 -17440581.068 9
  22315080.310    -3102532.642 4  -2246991.878 2
  21509675.208   -17900103.417 5 -13770842.754 5
  19921795.224   -23188845.078 6 -17747375.110 7
 94  1 22 23 30 59.9930000  0  8 29 27  2 18 19 16 28 31
  20571790.153    -1655285.401 6  -1246301.782 5
  19403571.755   -29668503.540 7 -22916256.199 8
  21264963.747   -11065623.073 5  -8513441.400 5
  18438682.599   -17357680.576 7
  18605512.622   -22544619.352 7 -17479429.000 9
  22296730.114    -3199020.260 4  -2322176.983 3
  21508905.958   -17904144.589 5 -13773991.732 5
  19909783.497   -23251957.107 6 -17796553.292 7
 94  1 22 23 31 29.9930000  0  8 29 27  2 18 19 16 28 31
  20580462.872    -1609692.056 6  -1210774.533 6
  19385511.458   -29763406.297 7 -22990206.379 8
  21241151.724   -11190761.662 5  -8610951.919 5
  18438865.294   -17356722.344 7 -13441364.301 8
  18596064.513   -22594262.322 7 -17518111.823 9
  22278444.450    -3295045.129 3  -2397001.494 2
  21508233.489   -17907674.740 5 -13776742.507 5
  19897882.458   -23314511.117 6 -17845296.645 7
 94  1 22 23 31 59.9930000  0  8 29 27  2 18 19 16 28 31
  20589192.372    -1563830.694 6  -1175038.446 6
  19367485.364   -29858140.559 7 -23064025.263 8
  21217383.028   -11315656.464 5  -8708272.488 5
  18439142.974   -17355276.843 7 -13440237.940 8
  18586656.817   -22643705.632 7 -17556639.071 9
  22260257.771    -3390611.442 4  -2471468.666 1
  21507654.146   -17910721.587 5 -13779116.675 5
  19886083.521   -23376505.613 6 -17893604.014 7
 94  1 22 23 32 29.9930000  0  8 29 27  2 18 19 16 28 31
  20597976.474    -1517674.762 6  -1139072.825 6
  19349490.903   -29952693.641 7 -23137702.969 8
  21193668.028   -11440290.389 5  -8805389.775 5
  18439512.513   -17353331.716 7 -13438722.266 8
  18577290.521   -22692926.738 7 -17594993.173 9
  22242167.606    -3485699.050 5  -2545562.848 3
  21507170.872   -17913269.913 5 -13781102.393 5
  19874396.255   -23437935.160 6 -17941471.168 7
 94  1 22 23 32 59.9920000  0  8 29 27  2 18 19 16 28 31
  20606815.570    -1471214.678 6  -1102870.201 6
  19331530.758   -30047078.147 7
  21169996.906   -11564668.006 5  -8902307.318 5
  18439974.773   -17350899.938 7 -13436827.381 8
  18567961.773   -22741950.301 7 -17633193.347 9
  22224162.281    -3580307.261 4
  21506777.844   -17915340.944 5 -13782716.193 5
  19862808.555   -23498810.392 6 -17988906.379 7
 94  1 22 23 33 29.9920000  0  8 29 27  2 18 19 16 28 31
  20615718.399    -1424433.944 6  -1066417.727 5
  19313597.531   -30141317.224 7 -23284682.345 8
  21146373.852   -11688807.569 5  -8999039.367 5
  18440528.398   -17347986.287 7 -13434557.013 8
  18558665.266   -22790799.436 7 -17671257.604 9
  22206241.055    -3674448.253 4  -2692641.088 4
  21506476.367   -17916927.913 5 -13783952.795 5
  19851332.672   -23559120.414 6 -18035901.181 7
 94  1 22 23 33 59.9920000  0  8 29 27  2 18 19 16 28 31
  20624683.758    -1377327.319 6  -1029711.314 5
  19295687.695   -30235431.301 7 -23358017.963 8
  21122792.297   -11812724.373 5  -9095597.843 5
  18441171.602   -17344599.688 7 -13431918.110 8
  18549402.555   -22839484.528 7 -17709194.034 9
  22188418.195    -3768114.141 4  -2765627.391 3
  21506268.602   -17918019.082 5 -13784803.060 5
  19839961.172   -23618869.432 6 -18082458.822 7
 94  1 22 23 34 29.9920000  0  8 29 27  2 18 19 16 28 31
  20633704.617    -1329912.792 6   -992764.976 6
  19277800.375   -30329436.776 7 -23431268.956 8
  21099252.953   -11936438.097 5  -9191998.044 5
  18441903.727   -17340749.528 7 -13428917.992 8
  18540166.570   -22888014.255 7 -17747009.395 9
  22170690.508    -3861293.908 4  -2838234.932 3
  21506157.539   -17918612.849 5 -13785265.736 5
  19828696.477   -23678065.426 6 -18128585.538 7
 94  1 22 23 34 59.9920000  0  8 29 27  2 18 19 16 28 31
  20642787.875    -1282175.696 6   -955567.292 5
  19259938.695   -30423303.941 7 -23504412.173 8
  21075754.008   -12059930.395 5  -9288225.758 5
  18442731.906   -17336413.756 7 -13425539.481 8
  18530965.164   -22936362.323 7 -17784683.207 9
  22153061.141    -3953962.630 5  -2910444.264 4
  21506143.383   -17918681.699 5
  19817547.188   -23736667.557 6 -18174249.508 7
 94  1 22 23 35 29.9920000  0  8 29 27  2 18 19 16 28 31
  20651924.156    -1234169.206 6   -918159.690 5
  19242095.352   -30517063.903 6 -23577471.859 8
  21052291.250   -12183224.598 5  -9384299.097 5
  18443643.625   -17331621.452 7 -13421805.222 9
  18521797.844   -22984544.387 7 -17822227.665 9
  22135518.625    -4046145.921 5  -2982275.356 2
  21506223.406   -17918240.143 5
  19806502.148   -23794699.112 6 -18219468.869 7
 94  1 22 23 35 59.9920000  0  8 29 27  2 18 19 16 28 31
  20661110.203    -1185900.622 6   -880547.853 6
  19224278.648   -30610696.904 7 -23650432.609 8
  21028869.961   -12306297.225 5  -9480199.780 5
  18444643.695   -17326360.419 7 -13417705.724 9
  18512667.008   -23032532.221 7 -17859620.773 9
  22118071.414    -4137833.022 5  -3053719.800 4
  21506404.438   -17917289.211 5 -13784234.336 5
  19795570.805   -23852153.540 6 -18264238.518 7
 94  1 22 23 36 29.9920000  0  8 29 27  2 18 19 16 28 31
  20670345.383    -1137377.439 6   -842737.635 5
  19206485.711   -30704188.762 6 -23723283.384 8
  21005496.649   -12429125.566 5  -9575910.107 5
  18445737.125   -17320611.932 7 -13413226.375 9
  18503576.453   -23080302.472 7 -17896844.333 9
  22100713.563    -4229034.865 5  -3124786.127 4
  21506683.242   -17915831.234 5 -13783098.246 5
  19784748.836   -23909012.550 6 -18308544.211 7
 94  1 22 23 36 59.9920000  0  8 29 27  2 18 19 16 28 31
  20679625.609    -1088603.662 5   -804732.142 5
  19188723.445   -30797533.381 7 -23796019.429 8
  20982171.930   -12551698.464 5  -9671421.378 5
  18446922.477   -17314383.330 7 -13408372.936 9
  18494526.164   -23127853.267 7 -17933896.890 9
  22083442.266    -4319766.824 4  -3195486.281 4
  21507059.203   -17913866.546 5 -13781567.321 5
  19774044.797   -23965283.360 6 -18352391.564 7
 94  1 22 23 37 29.9920000  0  8 29 27  2 18 19 16 28 31
  20688954.789    -1039582.102 5   -766533.578 5
  19170991.438   -30890726.766 7 -23868637.625 8
  20958897.422   -12674007.970 5  -9766727.442 5
  18448198.867   -17307678.927 7 -13403148.733 9
  18485519.438   -23175187.409 7 -17970780.625 9
  22066269.469    -4410029.427 4  -3265820.735 4
  21507528.023   -17911392.987 5 -13779639.882 5
  19763442.305   -24020975.423 6 -18395787.945 7
 94  1 22 23 37 59.9920000  0  8 29 27  2 18 19 16 28 31
  20698329.547     -990311.890 5   -728141.250 5
  19153284.742   -30983764.254 7 -23941134.351 8
  20935670.477   -12796072.711 5  -9861842.759 6
  18449564.125   -17300509.826 7 -13397562.423 9
  18476549.891   -23222320.950 7 -18007508.044 9
  22049182.359    -4499828.165 4  -3335793.735 3
  21508090.844   -17908416.987 5 -13777320.934 5
  19752954.719   -24076095.574 6 -18438738.681 7
 94  1 22 23 38 29.9920000  0  8 29 27  2 18 19 16 28 31
  20707749.758     -940793.329 5   -689555.415 5
  19135610.242   -31076647.356 7 -24013510.764 8
  20912485.149   -12917912.292 5  -9956782.626 5
  18451013.906   -17292890.739 7 -13391625.479 9
  18467613.641   -23269282.526 7 -18044101.464 9
  22032180.742    -4589156.778 4  -3405400.395 4
  21508759.281   -17904933.643 5 -13774606.654 5
  19742572.180   -24130655.860 6 -18481253.164 7
 94  1 22 23 38 59.9920000  0  8 29 27  2 18 19 16 28 31
  20717228.492     -890998.125 5   -650753.998 5
  19117969.203   -31169358.184 7 -24085752.945 8
  20889342.070   -13039515.429 5 -10051538.258 5
  18452549.367   -17284814.642 7 -13385332.429 9
  18458712.898   -23316063.473 7 -18080554.132 9
  22015279.391    -4677983.517 4  -3474616.005 3
  21509521.477   -17900922.478 5 -13771481.073 5
  19732300.672   -24184636.895 6 -18523316.280 7
 94  1 22 23 39 29.9920000  0  8 29 27  2 18 19 16 28 31
  20726748.969     -840945.737 5   -611752.178 5
  19100356.094   -31261912.487 7 -24157873.156 8
  20866243.063   -13160904.224 5 -10146126.865 5
  18454172.258   -17276292.773 7 -13378692.018 9
  18449837.563   -23362695.713 7 -18116890.932 9
  21998472.961    -4766322.809 4  -3543451.750 3
  21510375.406   -17896415.353 5 -13767969.032 5
  19722135.867   -24238052.221 6 -18564938.584 7
 94  1 22 23 39 59.9920000  0  8 29 27  2 18 19 16 28 31
  20736331.539     -790612.809 5   -572531.769 5
  19082776.148   -31354291.226 7 -24229856.570 8
  20843191.320   -13282054.408 5 -10240529.556 5
  18455884.563   -17267288.832 7 -13371675.969 9
  18440996.320   -23409151.439 7 -18153090.184 9
  21981760.008    -4854146.793 4  -3611885.969 3
  21511333.109   -17891401.033 5 -13764061.773 5
  19712085.938   -24290878.600 6 -18606101.964 7
 94  1 22 23 40 29.9920000  0  8 29 27  2 18 19 16 28 31
  20745960.383     -740011.911 5   -533102.539 5
  19065227.531   -31446510.809 7 -24301715.959 8
  20820183.914   -13402953.732 5 -10334736.770 6
  18457690.141   -17257811.666 7 -13364291.176 9
  18432192.742   -23455421.701 7 -18189144.922 9
  21965139.000    -4941469.326 4  -3679929.468 2
  21512377.031   -17885902.643 5 -13759777.308 5
  19702142.063   -24343124.206 6 -18646812.806 7
 94  1 22 23 40 59.9920000  0  8 29 27  2 18 19 16 28 31
  20755636.813     -689161.775 5   -493479.114 5
  19047710.102   -31538569.365 7 -24373449.872 8
  20797229.125   -13523576.999 6 -10428728.865 6
  18459580.773   -17247862.177 7 -13356538.339 9
  18423429.063   -23501475.578 7 -18225031.051 9
  21948616.891    -5028291.772 4  -3747583.251 3
  21513521.914   -17879919.958 5 -13755115.473 5
  19692308.992   -24394784.128 6 -18687067.265 7
 94  1 22 23 41 29.9920000  0  8 29 27  2 18 19 16 28 31
  20765355.703     -638073.612 5   -453670.200 5
  19030223.125   -31630459.336 7 -24445052.423 8
  20774327.703   -13643921.135 5 -10522503.453 6
  18461563.563   -17237446.323 7 -13348422.099 9
  18414707.977   -23547303.466 7 -18260741.077 9
  21932199.438    -5114610.068 5  -3814844.230 5
  21514750.320   -17873453.326 5 -13750076.525 5
  19682592.977   -24445855.992 6 -18726863.500 7
 94  1 22 23 41 59.9920000  0  8 29 27  2 18 19 16 28 31
  20775121.445     -586763.656 5   -413688.468 5
  19012764.117   -31722213.063 7 -24516548.815 9
  20751477.180   -13764003.623 6 -10616074.181 5
  18463630.016   -17226588.101 7 -13339961.161 9
  18406028.563   -23592907.766 7 -18296276.888 9
  21915858.680    -5200445.225 5  -3881728.716 4
  21516070.422   -17866511.303 5 -13744667.153 5
  19672987.570   -24496339.517 6 -18766201.290 7
 94  1 22 23 42 29.9920000  0  8 29 27  2 18 19 16 28 31
  20784933.430     -535211.377 5   -373517.914 5
  18995332.297   -31813819.145 7 -24587930.151 9
  20728677.219   -13883820.578 6 -10709437.985 5
  18465781.711   -17215285.549 7 -13331153.985 9
  18397395.281   -23638277.507 7 -18331629.932 9
  21899617.430    -5285789.740 4  -3948230.885 4
  21517484.578   -17859072.894 5 -13738870.963 5
  19663494.570   -24546218.398 6 -18805067.924 7
 94  1 22 23 42 59.9920000  0  8 29 27  2 18 19 16 28 31
  20794785.531     -483421.000 5   -333161.823 5
  18977924.375   -31905296.678 7 -24659211.321 8
  20705921.297   -14003408.889 5 -10802623.630 6
  18468013.305   -17203550.769 7 -13322010.013 9
  18388800.836   -23683448.954 7 -18366828.447 9
  21883466.563    -5370650.231 5  -4014355.884 4
  21518990.875   -17851144.764 5 -13732693.196 5
  19654115.008   -24595498.200 6 -18843467.752 7
 94  1 22 23 43 29.9920000  0  8 29 27  2 18 19 16 28 31
  20804693.617     -431361.035 5   -292595.654 5
  18960539.047   -31996655.612 7 -24730400.074 9
  20683205.164   -14122777.706 5 -10895638.252 5
  18470331.039   -17191374.354 7 -13312521.913 9
  18380237.438   -23728432.881 7 -18401880.852 9
  21867413.711    -5455038.805 5  -4080113.153 4
  21520594.820   -17842726.259 5 -13726133.317 5
  19644858.195   -24644165.349 6 -18881390.187 7
 94  1 22 23 43 59.9920000  0  8 29 27  2 18 19 16 28 31
  20814656.375     -379022.991 5   -251812.812 5
  18943174.180   -32087900.147 7 -24801499.682 9
  20660532.148   -14241929.795 5 -10988483.989 6
  18472736.570   -17178739.834 7 -13302676.846 9
  18371713.602   -23773230.705 7 -18436788.245 9
  21851446.242    -5538953.979 5  -4145501.564 2
  21522292.992   -17833810.770 5 -13719186.177 5
  19635710.492   -24692233.190 6 -18918845.634 7
 94  1 22 23 44 29.9920000  0  8 29 27  2 18 19 16 28 31
  20824665.438     -326402.680 5   -210810.016 5
  18925835.563   -32179016.417 7 -24872499.347 9
  20637899.180   -14360862.342 6 -11081158.660 6
  18475227.922   -17165641.974 7 -13292470.736 9
  18363223.039   -23817855.649 7 -18471560.915 9
  21835567.859    -5622381.474 5  -4210509.960 2
  21524078.055   -17824404.496 5 -13711856.605 5
  19626675.844   -24739711.784 6 -18955841.919 7
 94  1 22 23 44 59.9920000  0  8 29 27  2 18 19 16 28 31
  20834732.102     -273504.579 5   -169590.764 5
  18908522.188   -32269998.106 7 -24943394.144 9
  20615312.852   -14479558.922 6 -11173649.463 6
  18477810.234   -17152070.380 7 -13281895.479 9
  18354766.813   -23862300.587 7 -18506193.327 9
  21819789.766    -5705306.590 5  -4275126.886 3
  21525967.336   -17814502.720 5 -13704140.942 5
  19617750.891   -24786588.723 6 -18992369.381 7
 94  1 22 23 45 29.9920000  0  8 29 27  2 18 19 16 28 31
  20844845.773     -220362.745 5   -128181.596 5
  18891235.164   -32360847.078 7 -25014185.526 9
  20592768.148   -14598024.653 5 -11265960.379 6
  18480482.688   -17138027.138 7 -13270952.704 9
  18346341.531   -23906562.339 7 -18540682.991 9
  21804102.383    -5787729.822 5  -4339352.729 2
  21527940.930   -17804121.322 5 -13696051.539 5
  19608944.422   -24832885.403 6 -19028444.693 7
 94  1 22 23 45 59.9920000  0  8 29 27  2 18 19 16 28 31
  20855002.711     -166981.455 5    -86585.830 5
  18873977.359   -32451534.177 7 -25084850.768 9
  20570271.891   -14716245.520 5 -11358080.479 6
  18483248.641   -17123493.564 7 -13259627.850 9
  18337955.625   -23950630.762 7 -18575022.014 9
  21788523.438    -5869616.669 5  -4403160.609 3
  21530007.406   -17793260.666 5 -13687588.692 5
  19600248.219   -24878588.177 6 -19064057.222 7
 94  1 22 23 46 29.9920000  0  8 29 27  2 18 19 16 28 31
  20865206.391     -113368.738 5    -44809.736 5
  18856753.758   -32542051.120 7 -25155383.442 9
  20547822.969   -14834211.848 5 -11450002.251 6
  18486104.797   -17108486.122 7 -13247933.757 9
  18329609.180   -23994507.086 7 -18609211.343 9
  21773038.031    -5950976.486 5  -4466557.823 4
  21532165.461   -17781934.902 5 -13678763.425 5
  19591661.219   -24923689.155 6 -19099200.820 7
 94  1 22 23 46 59.9920000  0  8 29 27  2 18 19 16 28 31
  20875449.555      -59538.220 5     -2863.913 5
  18839560.024   -32632402.412 7 -25225787.022 9
  20525421.766   -14951924.088 6 -11541726.041 6
  18489048.305   -17093019.243 7 -13235881.657 9
  18321296.008   -24038181.216 7 -18643243.122 9
  21757651.523    -6031819.364 5  -4529552.233 3
  21534407.461   -17770151.627 5 -13669581.655 5
  19583195.578   -24968189.121 6 -19133876.091 7
 94  1 22 23 47 29.9920000  0  8 29 27  2 18 19 16 28 31
  20885734.563       -5487.385 5     39253.566 5
  18822402.094   -32722573.826 7 -25296050.437 9
  20503074.352   -15069368.445 5 -11633241.077 6
  18492078.078   -17077092.866 7 -13223471.504 8
  18313027.109   -24081643.551 7 -18677109.866 9
  21742371.203    -6112142.848 4  -4592141.901 4
  21536733.805   -17757913.104 5 -13660045.137 5
  19574838.477   -25012096.819 6 -19168089.862 7
 94  1 22 23 47 59.9920000  0  8 29 27  2 18 19 16 28 31
  20896064.867       48788.268 5     81546.235 5
  18805276.016   -32812563.780 7 -25366172.458 9
  20480777.469   -15186541.869 5 -11724544.998 6
  18495191.711   -17060731.526 7 -13210722.419 9
  18304796.555   -24124898.455 7
  21727179.719    -6191956.049 4  -4654333.963 3
  21539149.359   -17745220.666 5 -13650154.916 5
  19566592.375   -25055425.319 6
 94  1 22 23 48 29.9920000  0  8 29 27  2 18 19 16 28 31
  20906438.664      103291.313 5    124016.092 5
  18788185.547   -32902376.105 7 -25436156.062 9
  20458530.750   -15303440.656 5 -11815634.914 6
  18498386.742   -17043946.321 7 -13197643.049 9
  18296605.328   -24167929.860 7 -18744345.923 9
  21712091.227    -6271254.086 5  -4716124.592 4
  21541654.313   -17732060.056 5 -13639899.884 5
  19558457.875   -25098185.842 6 -19235172.169 7
 94  1 22 23 48 59.9920000  0  8 29 27  2 18 19 16 28 31
  20916849.852      158012.143 5    166655.657 5
  18771124.727   -32992027.742 7 -25506014.456 9
  20436338.984   -15420067.949 6 -11906513.270 6
  18501660.117   -17026731.026 7 -13184228.549 9
  18288458.555   -24210741.632 7 -18777705.735 9
  21697102.664    -6350026.020 5  -4777505.265 4
  21544248.977   -17718428.952 5 -13629278.222 5
  19550429.359   -25140380.941 6 -19268051.443 7
 94  1 22 23 49 29.9920000  0  8 29 27  2 18 19 16 28 31
  20927301.094      212947.272 5    209462.209 5
  18754096.523   -33081518.946 7 -25575747.833 9
  20414193.570   -15536433.561 6 -11997187.721 6
  18505019.969   -17009085.834 7 -13170479.055 9
  18280353.047   -24253347.443 7 -18810905.060 9
  21682208.125    -6428284.057 5  -4838485.499 4
  21546933.703   -17704319.067 5 -13618283.480 5
  19542502.695   -25182026.471 6 -19300502.480 7
 94  1 22 23 49 59.9920000  0  8 29 27  2 18 19 16 28 31
  20937797.617      268109.222 5    252445.505 5
  18737096.117   -33170849.711 7 -25645356.194 9
  20392099.898   -15652547.582 6 -12087666.133 6
  18508460.883   -16991006.993 7 -13156391.663 9
  18272282.734   -24295753.823 7 -18843948.974 9
  21667419.203    -6506023.820 5  -4899061.884 5
  21549706.742   -17689731.335 5 -13606916.388 5
  19534685.516   -25223098.812 6 -19332506.877 7
 94  1 22 23 50 29.9920000  0  8 29 27  2 18 19 16 28 31
  20948339.984      323512.657 5    295616.973 5
  18720125.781   -33260025.060 7 -25714843.456 9
  20370054.547   -15768398.728 6 -12177939.705 6
  18511986.195   -16972473.370 7 -13141949.894 9
  18264250.313   -24337965.815 7 -18876841.426 9
  21652721.602    -6583248.408 5  -4959236.837 3
  21552575.680   -17674661.586 5 -13595173.707 5
  19526984.992   -25263571.453 6 -19364043.973 7
 94  1 22 23 50 59.9920000  0  8 29 27  2 18 19 16 28 31
  20958929.367      379157.298 5    338976.386 5
  18703187.695   -33349043.314 7 -25784208.300 9
  20348057.320   -15883984.908 6 -12268006.813 6
  18515601.258   -16953479.104 7 -13127149.177 9
  18256248.898   -24380001.323 7 -18909596.357 9
  21638119.891    -6659965.677 4  -5019016.490 4
  21555536.703   -17659110.747 5 -13583056.152 5
  19519402.742   -25303429.142 6 -19395101.879 7
 94  1 22 23 51 29.9910000  0  8 29 27  2 18 19 16 28 31
  20969567.675      435056.626 5    382534.265 5
  18686282.917   -33437874.008 7 -25853426.997 9
  20326114.136   -15999291.423 6 -12357855.985 6
  18519304.284   -16934016.424 7 -13111983.460 8
  18248287.112   -24421845.341 7 -18942202.063 9
  21623619.839    -6736165.666 5  -5078393.046 3
  21558585.847   -17643085.063 5 -13570568.593 5
  19511936.136   -25342656.637 6 -19425668.731 7
 94  1 22 23 51 59.9910000  0  8 29 27  2 18 19 16 28 31
  20980252.175      491201.491 5    426283.462 5
  18669413.769   -33526531.980 7 -25922511.107 9
  20304221.706   -16114336.421 6 -12447501.399 6
  18523096.511   -16914091.875 7 -13096457.857 8
  18240358.230   -24463500.447 7 -18974660.578 9
  21609219.159    -6811844.772 5  -5137363.753 4
  21561719.901   -17626605.807 5 -13557727.604 5
  19504591.441   -25381249.891 6 -19455741.372 7
 94  1 22 23 52 29.9910000  0  8 29 27  2 18 19 16 28 31
  20990978.542      547550.031 5    470191.363 5
  18652569.909   -33615046.211 7 -25991483.212 9
  20282378.417   -16229137.075 6 -12536956.413 6
  18526969.222   -16893739.131 7 -13080598.591 8
  18232465.019   -24504987.494 7 -19006988.138 9
  21594913.081    -6887024.007 5  -5195944.936 4
  21564939.831   -17609693.249 5 -13544548.975 4
  19497365.276   -25419231.096 6 -19485337.096 7
 94  1 22 23 52 59.9910000  0  8 29 27  2 18 19 16 28 31
  21001737.909      604107.192 5    514261.833 4
  18635758.222   -33703394.291 7 -26060325.842 9
  20260579.722   -16343690.497 6 -12626218.776 6
  18530925.698   -16872946.164 7 -13064396.291 8
  18224610.245   -24546276.056 7 -19039161.034 9
  21580706.190    -6961692.192 5  -5254127.893 5
  21568245.401   -17592342.171 5 -13531028.652 5
  19490252.651   -25456594.579 6 -19514451.474 7
 94  1 22 23 53 29.9910000  0  8 29 27  2 18 19 16 28 31
  21012539.050      660866.384 5    558489.727 4
  18618977.769   -33791572.815 7 -26129036.349 9
  20238825.980   -16458004.324 6 -12715294.447 6
  18534966.690   -16851716.748 7 -13047853.903 8
  18216794.003   -24587349.155 7 -19071166.027 9
  21566592.097    -7035862.111 5  -5311922.601 4
  21571626.815   -17574565.433 5 -13517176.638 5
  19483258.448   -25493351.334 6 -19543093.062 7
 94  1 22 23 53 59.9910000  0  8 29 27  2 18 19 16 28 31
  21023372.706      717806.937 5    602858.937 5
  18602224.042   -33879610.433 7 -26197637.061 9
  20217113.237   -16572096.467 6 -12804197.371 6
  18539083.612   -16830076.038 7 -13030991.020 8
  18209016.487   -24628223.087 7 -19103015.829 9
  21552565.050    -7109552.983 5  -5369344.002 5
  21575086.683   -17556359.008 5 -13502989.826 5
  19476376.073   -25529517.611 6 -19571274.553 7
 94  1 22 23 54 29.9910000  0  8 29 27  2 18 19 16 28 31
  21034246.519      774945.763 5    647382.650 5
  18585500.972   -33967494.054 7 -26266117.774 9
  20195450.347   -16685933.403 6 -12892901.429 6
  18543284.550   -16808003.975 7 -13013792.020 8
  18201277.690   -24668880.429 7 -19134696.861 9
  21538636.855    -7182765.407 5  -5426392.599 4
  21578636.183   -17537702.841 5 -13488452.562 5
  19469607.894   -25565085.182 6 -19598989.525 7
 94  1 22 23 54 59.9910000  0  8 29 27  2 18 19 16 28 31
  21045162.933      832292.288 5    692068.209 4
  18568809.972   -34055203.503 7 -26334462.765 9
  20173838.120   -16799508.570 6 -12981401.521 6
  18547569.769   -16785485.091 7 -12996244.853 8
  18193585.409   -24709309.644 7 -19166200.136 9
  21524789.581    -7255495.310 5  -5483065.227 4
  21582274.269   -17518597.886 5 -13473565.608 5
  19462953.089   -25600064.095 6 -19626245.803 7
 94  1 22 23 55 29.9910000  0  8 29 27  2 18 19 16 28 31
  21056112.659      889833.908 5    736905.789 3
  18552151.675   -34142746.449 7 -26402678.022 9
  20152278.901   -16912812.535 6 -13069690.296 6
  18551935.870   -16762540.763 7 -12978366.175 8
  18185930.206   -24749532.656 7 -19197542.732 9
  21511053.901    -7327722.799 5  -5539346.372 4
  21585996.284   -17499039.766 5 -13458325.507 4
  19456411.995   -25634453.072 6 -19653042.389 7
 94  1 22 23 55 59.9910000  0  8 29 27  2 18 19 16 28 31
  21067094.261      947554.446 5    781882.766 4
  18535519.167   -34230144.227 7 -26470780.165 9
  20130766.831   -17025851.126 6 -13157772.283 6
  18556378.683   -16739191.898 7 -12960172.272 8
  18178309.925   -24789580.393 7 -19228748.750 9
  21497400.675    -7399447.611 5  -5595235.778 4
  21589801.573   -17479041.139 5 -13442742.174 4
  19449975.878   -25668268.989 6 -19679392.435 7
 94  1 22 23 56 29.9910000  0  8 29 27  2 18 19 16 28 31
  21078117.003     1005484.802 5    827023.260 4
  18518919.675   -34317377.044 7 -26538753.759 9
  20109309.167   -17138606.489 6 -13245633.562 6
  18560905.503   -16715406.295 7 -12941638.049 8
  18170726.253   -24829438.242 7 -19259806.801 9
  21483857.909    -7470643.463 5  -5650713.020 3
  21593688.175   -17458597.681 5 -13426812.223 4
  19443648.222   -25701500.593 6 -19705287.177 7
 94  1 22 23 56 59.9910000  0  8 29 27  2 18 19 16 28 31
  21089178.589     1063613.396 5    872318.214 5
  18502350.300   -34404451.316 7 -26606603.812 9
  20087904.472   -17251102.983 6 -13333293.139 6
  18565510.144   -16691202.739 7 -12922778.142 8
  18163172.175   -24869119.022 7 -19290726.873 9
  21470412.128    -7541298.773 5  -5705769.047 3
  21597666.511   -17437720.016 5 -13410543.934 4
  19437437.433   -25734159.255 6 -19730735.469 7
 94  1 22 23 57 29.9910000  0  8 29 27  2 18 19 16 28 31
  21100275.480     1121937.312 5    917765.375 5
  18485808.909   -34491368.693 7 -26674331.605 9
  20066547.972   -17363335.317 6 -13420746.849 6
  18570195.815   -16666584.144 7 -12903594.832 8
  18155658.472   -24908609.202 7 -19321498.420 9
  21457065.675    -7611405.623 5  -5760397.718 4
  21601719.276   -17416401.918 5 -13393932.424 3
  19431331.409   -25766237.402 6 -19755731.406 7
 94  1 22 23 57 59.9910000  0  8 29 27  2 18 19 16 28 31
  21111416.323     1180481.761 5    963384.382 3
  18469302.651   -34578113.299 7 -26741924.772 9
  20045238.198   -17475305.367 6 -13507996.205 6
  18574963.558   -16641522.821 7 -12884066.530 8
  18148185.815   -24947882.618 7 -19352101.057 9
  21443825.792    -7680976.420 5  -5814608.704 4
  21605863.089   -17394637.689 5 -13376973.280 4
  19425340.269   -25797731.016 6 -19780271.857 7
